GEFSSGP_500_meanwind_006.txt.gz
Wind_Speed
21 20 17 14 11 8 9 17 22 23 21 19 18 17 16 14 13 12 13 13 12 9 8 7 7 7 6 5 5 6 8 8 8 8 8 7 7 7 6 7 9 11 13 14 15 18 20 22 24
22 21 18 14 11 9 13 21 25 25 22 21 18 16 16 15 14 14 14 13 12 9 7 7 7 7 6 5 4 6 7 8 7 8 8 8 8 8 7 8 10 12 13 14 16 18 21 23 25
24 22 19 15 11 12 18 23 24 24 23 21 18 17 17 16 16 15 14 13 12 10 8 8 8 7 6 6 6 7 8 8 8 9 9 10 11 10 9 10 12 12 13 14 16 18 20 22 23
24 22 19 16 14 16 21 23 22 21 24 22 19 18 18 17 15 14 14 13 12 12 9 9 9 7 7 6 7 10 11 11 11 10 10 11 12 12 12 13 13 13 13 14 16 19 21 22 23
23 21 19 16 16 18 22 23 22 20 21 23 22 21 20 18 16 14 14 13 13 13 10 10 10 9 8 7 7 10 13 13 13 12 11 10 11 12 14 16 15 14 13 13 16 19 21 21 21
22 21 19 17 16 19 23 24 23 21 21 22 23 23 21 19 17 14 13 12 12 13 12 11 11 11 11 9 8 9 12 14 14 13 11 10 12 13 15 17 16 14 13 13 15 17 18 19 18
23 20 19 17 18 22 25 25 23 22 24 24 24 23 22 22 19 16 12 11 12 13 14 12 13 14 13 11 10 9 11 13 14 13 13 13 13 14 16 16 16 15 15 15 15 16 17 17 17
24 21 19 19 21 26 26 29 27 23 26 26 25 24 22 22 20 17 13 11 13 14 14 14 14 15 15 14 12 11 11 13 14 15 16 16 16 17 17 17 18 18 17 18 18 17 17 18 18
24 23 21 21 24 27 28 32 31 23 24 24 23 23 21 19 18 16 14 13 14 14 15 15 15 16 17 17 15 14 14 15 17 18 19 19 20 21 21 20 21 21 21 21 22 22 21 22 22
25 25 23 23 24 27 29 31 29 20 20 22 22 21 20 18 17 16 14 13 14 15 15 16 17 16 18 18 17 17 18 18 20 21 22 23 25 25 26 25 25 26 26 26 26 26 27 27 27
24 26 25 24 26 27 29 28 25 20 21 24 22 21 20 19 19 17 14 15 16 17 16 16 18 18 19 19 19 19 20 21 23 24 25 26 27 29 30 30 30 31 31 31 31 31 32 32 32
25 27 26 26 26 26 28 26 24 20 21 23 20 17 18 21 21 20 17 16 17 19 19 17 17 18 19 20 20 21 22 24 26 27 28 29 31 33 34 36 37 37 36 35 35 36 36 36 35
25 26 27 26 26 26 27 26 24 20 20 19 17 16 18 22 23 23 21 20 19 21 21 18 17 18 19 21 23 24 26 27 28 30 32 34 36 38 39 41 42 41 39 39 39 40 41 40 39
25 26 28 27 27 26 28 27 24 22 23 21 20 19 22 25 26 26 25 24 23 23 23 20 17 18 20 23 25 26 28 30 32 35 37 38 39 41 42 43 43 42 41 41 41 42 43 43 43
28 27 28 28 28 27 28 27 26 26 24 22 22 24 26 28 29 29 28 26 25 24 23 22 19 20 22 25 27 29 31 33 35 36 37 37 37 38 39 40 41 42 42 43 42 43 44 46 47
29 28 28 29 27 26 26 26 28 27 26 25 26 28 28 28 28 29 28 26 25 24 22 22 22 24 27 30 32 33 34 35 35 35 35 36 36 37 38 39 41 42 42 43 44 44 46 48 49
30 28 29 30 27 25 25 27 27 26 24 24 25 26 27 27 26 26 25 23 21 21 22 24 26 29 32 34 34 33 32 30 30 31 33 34 35 36 37 38 40 41 42 43 45 47 48 49 51
29 30 30 30 28 26 25 26 27 25 23 23 23 24 24 23 23 22 21 20 20 22 25 27 30 33 34 33 31 28 26 25 27 29 31 33 35 36 38 39 40 42 44 45 47 49 51 52 53
33 32 30 30 27 27 27 26 27 27 24 22 21 21 21 20 19 19 20 20 22 25 29 31 32 32 30 27 26 26 26 26 27 29 31 32 34 36 37 38 39 41 43 43 44 46 48 49 52
35 32 30 29 27 27 27 27 25 24 22 19 18 18 18 18 18 19 21 24 27 31 33 33 31 28 25 24 25 26 27 29 30 31 33 35 37 40 41 43 44 45 47 48 49 51 52 53 55
36 33 30 28 27 28 28 26 24 21 19 16 16 17 17 18 18 21 25 29 32 34 34 32 29 28 27 27 27 28 30 31 34 36 39 41 44 46 48 49 50 52 53 54 54 56 58 59 59
35 32 30 28 28 28 28 25 22 20 18 17 18 18 19 20 22 25 29 32 33 32 30 29 29 29 29 30 31 33 35 37 39 41 43 46 47 49 51 52 54 56 57 59 60 61 62 64 64
32 31 29 27 27 28 27 25 21 19 19 19 20 21 22 23 26 28 29 29 28 27 27 28 29 30 32 33 35 37 38 40 42 43 45 48 50 52 54 56 58 60 62 64 66 67 69 70 71
32 31 30 28 28 29 28 26 21 20 21 23 24 25 25 26 28 28 26 25 25 26 27 28 29 31 32 34 36 38 40 43 45 47 50 52 54 56 58 60 62 63 65 66 67 68 69 70 71
33 33 31 30 30 29 29 28 24 23 24 26 27 27 26 26 26 26 25 24 25 26 27 29 30 32 34 36 39 41 44 46 49 51 53 55 56 58 59 61 63 65 65 66 66 67 67 68 69
32 33 31 29 29 29 30 30 27 26 26 27 27 26 25 25 25 23 23 24 25 26 29 31 34 36 38 40 42 44 47 49 51 53 55 57 59 61 63 65 66 68 70 71 72 72 73 73 74
33 31 29 29 29 28 28 27 24 24 24 24 23 22 23 24 23 23 23 25 27 30 32 34 36 39 40 42 44 46 49 51 54 56 59 61 63 66 68 70 71 72 74 75 76 78 78 79 80
32 29 29 28 28 27 26 24 20 19 20 19 19 19 21 23 23 24 27 29 32 34 35 36 38 40 42 45 47 50 53 56 58 59 61 64 67 70 73 75 76 78 80 81 82 83 83 84 85
31 29 27 26 25 22 19 18 17 17 19 20 21 21 22 24 26 28 30 33 35 36 38 39 41 44 48 52 56 58 60 62 64 67 70 73 75 78 80 82 83 84 85 86 87 88 89 89 88
29 27 25 22 18 16 14 15 17 19 21 22 23 23 24 25 27 30 32 34 36 38 41 44 48 52 55 59 62 64 66 69 72 75 78 81 83 86 88 89 90 91 90 90 89 89 90 90 89

GEFSSGP_500_meanwind_012.txt.gz
Wind_Speed
23 20 19 19 17 14 13 17 22 24 23 21 19 18 15 12 12 12 12 12 11 12 13 12 12 12 13 13 13 13 13 14 13 11 10 11 10 11 12 12 12 12 13 14 14 13 14 16 18
24 21 21 19 16 13 13 17 20 22 24 21 19 17 14 13 13 13 12 11 11 12 12 11 12 13 13 14 14 13 13 14 14 12 12 12 11 11 12 13 14 15 15 16 15 14 15 17 20
25 23 22 20 17 15 16 19 19 20 22 22 21 18 14 13 14 14 12 11 10 11 11 12 13 14 13 13 13 13 12 13 14 13 13 13 13 13 14 14 15 17 17 17 16 15 15 17 19
26 24 23 22 20 19 20 21 19 20 22 22 21 20 17 15 15 14 12 11 10 11 12 13 14 14 14 13 13 12 13 14 15 15 15 15 14 14 15 16 17 18 19 18 17 16 16 17 17
28 25 23 23 23 23 24 22 19 20 21 21 20 20 19 17 17 16 13 11 10 11 12 13 13 13 14 14 13 13 14 16 17 18 18 17 16 16 16 17 18 19 19 19 18 18 18 17 16
28 27 24 23 25 26 25 21 20 20 20 20 19 19 20 19 19 18 15 11 10 11 12 13 13 13 14 14 14 15 14 15 18 20 20 19 18 18 18 18 19 19 18 18 19 20 21 21 20
28 28 25 24 25 26 24 20 19 18 19 19 17 17 19 20 20 18 15 13 12 12 13 13 13 14 14 15 16 16 17 16 17 18 19 20 20 19 19 20 20 20 19 19 21 22 23 24 25
28 28 27 25 25 24 22 19 17 16 18 17 16 16 18 19 20 19 16 14 13 13 13 13 14 15 15 17 18 19 19 19 18 18 19 21 21 21 22 23 24 24 23 24 25 26 26 27 29
29 28 27 27 25 23 21 19 15 14 15 15 14 16 18 19 19 19 17 17 14 14 13 13 14 15 17 18 20 21 22 22 22 22 22 22 23 24 25 27 28 29 29 30 31 31 32 33 34
31 28 27 28 25 23 21 18 15 13 13 14 13 13 17 18 18 17 17 17 16 14 14 13 14 15 17 19 21 23 24 25 25 25 25 26 27 28 29 30 32 33 34 35 36 37 38 39 40
31 28 29 29 26 23 22 19 16 13 13 17 16 15 16 18 18 17 17 17 17 16 16 15 15 16 18 19 21 23 25 26 26 26 27 29 30 31 32 33 35 36 37 39 40 42 43 45 45
32 30 30 29 27 24 23 20 17 13 13 19 20 17 16 16 18 18 18 18 18 19 19 18 18 19 19 20 21 22 23 25 26 27 28 30 32 33 35 37 38 40 42 43 44 46 47 48 48
33 32 32 30 28 25 23 21 18 13 15 20 20 18 15 15 16 18 19 19 20 21 22 21 22 21 20 20 21 21 22 24 25 27 29 32 34 36 38 40 42 44 46 46 46 46 46 47 47
35 35 32 29 28 27 25 21 17 13 20 19 17 15 13 13 15 16 18 20 22 23 23 24 24 23 21 21 21 22 24 25 27 29 32 35 38 40 42 43 44 45 44 42 42 42 43 44 44
37 36 32 28 28 28 25 19 19 19 19 16 15 15 15 14 15 17 19 22 24 26 26 25 24 24 22 22 22 24 26 28 30 33 36 39 41 42 42 42 41 41 40 40 40 41 42 43 44
39 36 31 27 29 29 24 18 21 19 18 17 17 17 17 16 17 19 22 25 28 30 30 28 25 24 23 23 24 27 29 32 34 36 38 39 39 38 37 36 36 37 38 38 39 40 41 42 43
39 35 30 29 30 27 23 18 20 18 19 19 19 19 18 18 19 22 25 27 29 31 30 28 25 24 24 25 27 30 33 35 37 37 37 36 34 34 33 33 33 34 35 36 38 40 41 43 44
35 33 31 30 30 27 23 20 19 18 18 19 20 19 18 20 22 25 27 27 27 28 28 26 25 25 26 28 30 33 35 36 36 36 34 33 32 32 31 32 34 36 37 39 41 43 45 47 49
36 36 33 31 30 26 23 20 19 17 17 19 20 19 20 22 24 25 25 24 24 24 24 24 26 27 29 31 33 34 35 35 35 34 33 32 33 34 35 36 38 40 42 44 46 49 51 53 55
37 35 32 31 30 26 23 20 19 18 18 19 20 20 20 21 22 22 21 21 21 22 23 25 28 31 33 35 35 35 34 33 33 33 33 34 36 37 39 40 43 45 47 50 52 54 56 57 58
36 32 31 30 28 25 23 21 20 20 20 20 19 19 19 19 19 20 21 21 21 22 25 28 31 33 34 34 33 31 31 32 33 34 35 37 39 41 43 45 47 50 51 53 54 56 58 59 59
32 31 30 29 28 25 23 21 20 21 21 21 20 19 18 17 18 20 21 22 23 25 28 30 32 33 32 31 31 31 32 34 35 37 39 41 43 45 47 48 49 50 52 54 56 58 60 62 64
29 30 29 29 28 25 22 21 18 21 22 22 20 19 19 19 19 21 23 25 27 29 31 32 32 31 31 32 32 33 35 36 38 40 42 43 44 46 47 50 52 54 57 59 61 64 66 69 71
29 29 28 28 28 24 20 22 18 21 22 21 20 20 21 21 22 24 27 29 31 32 33 32 32 32 33 34 35 37 38 39 40 41 42 44 46 49 53 56 59 63 65 68 70 72 74 77 79
32 29 27 25 25 22 21 22 17 20 21 21 21 22 23 24 25 27 29 31 33 34 33 33 33 34 35 37 38 39 40 40 41 43 45 48 51 55 59 62 65 68 71 74 76 78 80 82 84
30 27 24 23 24 23 23 20 17 19 21 22 23 24 26 27 28 29 30 32 33 34 34 34 36 37 39 39 40 40 40 41 44 47 50 54 58 61 65 68 71 73 75 78 80 82 84 87 90
31 27 25 25 25 24 22 19 17 19 21 23 24 26 27 28 28 27 28 31 32 33 35 37 38 39 40 40 40 41 42 46 49 53 57 61 65 69 72 75 76 78 81 83 85 88 91 94 97
33 30 28 27 25 24 22 20 19 20 22 24 25 26 27 26 26 26 28 31 33 35 37 38 38 39 39 40 41 44 47 51 55 59 63 66 70 74 76 78 80 82 85 88 91 94 98 100 102
34 32 30 28 26 24 22 20 19 20 22 24 24 25 25 25 26 27 30 32 34 36 36 36 37 38 39 41 44 47 52 56 60 64 68 71 74 77 79 81 83 86 89 93 96 99 101 103 103
35 33 31 30 28 26 24 21 20 21 22 23 25 25 26 27 28 29 31 33 34 35 35 36 37 39 42 45 49 53 57 62 66 69 72 74 77 79 81 84 87 91 94 98 100 101 101 100 97

GEFSSGP_500_meanwind_018.txt.gz
Wind_Speed
24 24 24 22 21 20 21 24 26 26 24 22 19 17 16 16 17 18 18 19 18 17 16 16 15 15 14 14 14 15 15 15 15 17 17 16 16 16 15 14 15 15 16 16 16 16 16 16 18
25 24 24 23 21 20 22 24 24 22 21 20 18 17 16 17 18 19 19 19 18 15 13 13 13 14 14 14 15 15 15 15 15 16 18 17 17 16 16 15 16 17 18 17 17 17 17 18 18
25 25 24 23 22 23 24 24 22 19 18 17 16 15 16 17 19 19 19 19 17 13 11 12 13 14 15 15 16 15 15 14 14 15 17 18 18 17 17 17 18 19 19 18 18 19 19 19 19
27 26 26 25 25 25 25 24 21 18 16 16 14 14 16 18 19 19 18 17 14 11 11 12 13 14 15 15 16 16 15 14 14 15 17 18 19 18 18 18 20 21 21 20 19 19 20 20 20
29 28 28 27 27 28 27 25 21 19 17 16 14 13 17 19 20 20 18 17 14 11 11 12 13 14 15 15 16 17 16 15 14 15 17 19 20 21 21 21 22 22 21 20 19 19 20 20 20
32 30 30 29 29 30 30 27 23 21 19 17 15 15 19 19 20 20 18 17 15 13 12 11 12 13 14 15 16 17 17 17 16 16 17 19 21 22 23 23 23 23 22 20 20 21 21 22 22
35 33 32 31 31 32 31 28 25 22 20 18 16 16 18 18 19 19 18 18 16 14 13 11 12 12 14 15 16 17 18 19 19 19 19 19 20 22 23 24 24 24 23 23 24 25 26 26 27
38 35 34 33 34 33 30 27 25 23 21 18 17 16 15 15 16 17 18 18 17 15 13 12 11 12 13 15 16 17 19 20 22 23 23 22 22 22 23 23 25 26 26 27 28 29 31 31 32
41 38 35 33 35 34 30 27 24 22 20 18 16 15 15 15 15 17 18 18 17 16 15 14 13 12 12 14 16 18 20 21 23 25 26 26 26 26 26 26 26 27 28 30 32 34 35 36 37
44 40 34 34 37 35 31 27 24 22 20 17 16 16 17 16 16 16 17 17 17 17 17 16 15 13 12 14 16 17 19 21 23 25 26 27 28 28 28 28 29 29 31 33 35 37 39 40 41
46 40 35 37 37 35 32 28 25 22 19 18 18 19 20 19 17 17 16 17 18 18 19 18 18 16 15 17 17 18 19 20 21 23 24 25 27 27 28 29 30 31 33 35 38 40 42 43 44
46 39 38 38 37 34 32 29 25 20 20 20 20 22 22 19 17 17 18 18 19 20 20 20 20 19 19 20 20 21 21 21 21 21 22 23 25 26 27 29 31 33 35 38 41 43 44 44 44
46 40 39 39 39 34 32 29 24 22 24 21 20 22 23 19 18 18 19 20 21 22 21 22 22 21 21 22 22 23 23 23 23 22 23 24 25 27 29 32 34 36 38 40 41 41 41 42 42
47 43 43 42 39 35 31 28 25 26 24 20 20 22 22 21 19 19 20 21 22 22 22 22 22 23 23 23 23 24 25 25 25 25 26 27 29 31 33 35 36 37 37 37 36 35 35 35 36
50 47 46 43 39 35 32 28 28 28 24 21 19 20 22 22 21 21 20 21 21 22 22 22 23 23 24 24 25 26 26 27 27 27 29 30 32 34 35 36 36 36 35 35 34 34 34 35 36
53 51 48 41 38 35 32 27 32 29 25 21 19 19 22 23 22 21 20 20 21 22 22 23 24 25 26 26 26 27 28 28 29 30 32 34 35 36 36 36 36 35 35 35 35 36 37 38 40
57 54 46 39 37 36 33 28 33 29 25 22 20 21 23 23 23 22 22 22 23 23 24 25 26 28 28 28 28 29 29 30 31 34 36 37 37 37 37 36 36 36 36 37 38 39 41 42 43
59 51 43 39 37 37 34 30 32 28 25 23 21 22 24 25 24 23 23 24 25 25 27 28 29 29 28 28 28 29 30 31 34 36 38 38 38 37 37 37 37 38 39 39 40 42 43 45 46
53 45 41 38 39 38 35 31 31 28 24 23 23 23 25 26 26 25 25 26 27 28 29 29 28 26 26 26 28 29 31 33 36 37 38 38 38 38 38 39 39 40 41 42 43 44 45 47 49
51 46 43 41 39 37 35 30 30 29 25 25 24 25 26 26 26 26 27 28 29 29 28 26 25 24 25 27 28 31 33 35 37 37 37 38 39 39 40 40 41 42 43 44 45 47 49 51 55
51 46 42 40 37 35 33 30 29 29 27 26 25 25 25 25 25 26 27 29 28 27 25 24 24 25 26 28 30 32 33 35 36 37 38 39 40 41 42 42 42 43 44 46 48 51 54 56 59
47 44 41 39 37 36 34 30 28 29 27 26 27 26 26 25 25 26 27 28 27 25 24 24 25 27 28 30 32 33 34 35 36 37 38 40 41 42 42 43 43 45 47 50 53 56 60 63 66
44 42 40 38 36 34 31 29 27 29 28 27 27 26 26 26 25 26 27 27 26 25 25 26 28 29 31 32 33 34 35 36 38 39 40 41 42 42 43 44 46 49 52 55 59 62 66 69 71
45 43 40 36 34 32 30 29 27 30 28 27 27 27 26 26 26 26 27 27 26 26 27 28 30 31 32 33 34 35 36 38 39 40 41 41 42 43 45 47 50 54 57 61 65 67 70 72 75
46 44 40 37 35 31 30 29 28 29 28 27 27 26 26 26 26 26 27 27 27 28 29 30 31 31 32 34 35 36 37 39 40 40 41 42 44 46 49 52 56 60 64 67 69 71 73 76 79
44 42 38 36 33 30 29 28 29 29 28 26 26 26 25 26 27 28 28 29 29 30 30 30 31 32 33 34 36 37 38 38 39 40 42 44 47 50 54 58 62 65 68 70 72 74 77 79 82
42 40 37 34 31 29 29 28 27 27 27 26 25 25 25 26 27 29 29 30 30 30 31 31 31 32 34 35 36 36 36 37 39 41 45 48 52 56 60 64 67 69 70 72 74 77 80 83 86
40 37 35 33 31 29 28 28 28 27 26 26 24 24 24 25 27 28 29 29 30 30 31 31 32 33 35 35 35 35 37 39 43 47 51 55 58 62 65 67 69 71 73 75 78 81 84 87 90
39 37 36 33 31 29 27 26 27 27 26 25 24 24 25 25 26 28 28 28 29 30 30 32 33 34 34 34 35 38 41 45 49 53 56 60 63 65 68 70 72 74 76 79 82 85 88 91 94
36 35 34 32 29 26 25 24 24 24 24 24 24 25 25 26 27 27 28 28 29 30 32 33 33 33 35 36 39 43 47 51 55 58 61 64 66 69 71 73 75 77 80 82 85 88 91 94 96

GEFSSGP_500_meanwind_024.txt.gz
Wind_Speed
24 22 21 20 20 20 18 19 23 27 28 27 22 20 18 21 25 25 23 22 22 22 22 21 21 20 19 19 18 17 17 16 16 16 16 16 16 17 17 16 16 15 16 17 18 18 18 18 18
26 24 23 21 20 20 18 21 25 27 24 21 21 20 19 26 27 23 25 24 23 22 21 21 19 18 17 17 17 16 16 16 15 14 14 15 16 17 17 16 15 15 16 17 18 18 19 20 20
29 27 25 23 21 20 20 25 27 24 20 21 21 21 23 28 24 23 25 24 23 22 21 19 16 15 15 15 16 16 15 15 14 13 13 14 15 17 18 18 17 16 17 18 19 19 20 21 22
32 30 27 26 24 22 24 27 24 20 20 21 20 22 27 26 24 24 25 25 23 20 19 17 14 14 15 15 15 15 15 15 14 14 13 13 14 16 18 19 19 19 20 20 21 21 21 21 21
34 33 30 28 25 25 26 26 23 20 21 20 20 22 27 22 22 23 24 25 22 19 16 15 13 13 14 14 14 14 14 14 14 14 14 14 14 16 18 20 21 21 22 23 23 22 22 21 21
37 35 33 29 27 27 29 27 24 24 23 22 22 22 27 19 21 23 24 25 22 19 16 15 13 13 14 14 14 13 14 14 15 15 16 16 16 17 18 19 20 21 23 23 23 23 23 23 23
38 38 35 32 30 29 32 27 25 26 24 24 22 21 29 20 22 23 24 24 22 19 17 16 15 14 14 14 14 14 14 15 16 16 17 18 19 19 20 20 20 21 22 22 23 24 25 25 26
38 40 39 35 32 31 34 30 26 27 27 25 21 24 32 18 21 24 24 24 22 20 19 18 16 16 15 15 14 13 13 14 16 17 18 20 21 22 23 24 24 24 24 24 25 27 28 29 30
41 41 41 37 34 33 35 33 28 28 27 27 26 28 32 23 23 24 24 24 23 21 20 19 18 18 17 16 15 13 13 14 15 16 17 19 20 22 23 24 25 26 26 27 28 29 31 32 33
43 41 38 37 36 36 39 37 29 28 29 30 30 32 33 28 25 25 25 24 23 22 21 20 20 20 19 17 16 15 15 16 16 16 17 18 19 20 21 23 24 26 27 28 30 31 33 34 36
44 41 38 38 39 41 42 37 30 29 29 31 34 34 31 26 25 26 26 25 24 22 22 22 22 22 20 19 19 19 19 19 19 19 19 19 20 21 21 22 24 26 27 30 31 33 34 36 38
45 43 41 40 41 45 43 37 33 31 29 32 34 32 29 27 26 27 27 25 24 23 22 23 23 23 22 22 22 22 22 23 23 23 22 22 22 22 23 24 25 27 29 32 34 36 37 39 41
47 45 44 42 43 47 45 39 35 31 30 34 35 32 30 29 28 27 27 25 25 24 22 22 23 24 24 24 24 24 25 26 26 26 26 26 26 26 26 27 28 30 31 33 35 36 38 38 38
49 48 47 45 45 47 46 41 38 31 31 35 34 31 29 29 28 27 27 27 26 24 23 22 23 24 25 25 25 26 27 28 29 29 29 29 30 30 30 30 31 33 34 35 35 36 36 36 36
52 52 50 47 47 47 47 45 39 31 34 36 34 32 30 29 28 27 27 27 26 24 23 22 23 24 25 25 25 27 28 29 31 32 32 32 32 32 33 34 35 36 37 36 36 35 35 35 34
54 55 53 48 48 47 49 46 36 35 38 36 33 32 30 29 28 28 28 28 26 24 23 22 23 24 25 26 27 28 30 31 33 34 34 34 34 34 35 37 38 38 38 37 36 35 34 34 34
56 56 54 50 49 48 50 47 37 37 39 35 32 31 31 29 28 28 29 28 27 25 23 23 23 24 26 27 29 30 32 34 34 34 33 33 34 35 37 39 39 38 37 36 36 35 36 36 36
55 55 55 52 50 50 50 47 39 39 39 36 33 32 31 28 27 28 29 29 28 25 24 23 24 25 27 29 32 33 35 35 34 33 33 33 35 37 39 40 40 39 38 37 37 37 38 39 39
53 54 55 53 51 51 51 46 42 40 40 37 34 33 32 28 27 28 28 29 28 27 25 25 25 27 29 31 33 35 35 34 33 33 34 35 37 39 40 41 40 39 39 39 39 40 41 42 43
55 54 54 53 51 51 51 47 44 42 40 36 33 33 33 28 28 28 28 28 28 28 27 26 27 29 31 32 33 33 33 32 33 34 36 38 40 41 42 41 41 41 41 42 42 43 44 45 48
56 54 52 50 50 51 51 48 45 40 38 37 34 33 32 27 28 28 28 29 29 28 28 28 28 30 32 32 32 32 32 33 35 36 38 40 41 41 41 42 42 42 43 44 45 46 48 50 52
54 51 47 45 45 50 50 47 43 40 39 38 34 33 31 27 28 27 28 28 29 28 28 28 29 30 31 31 31 32 33 35 37 39 40 41 41 41 41 42 42 43 44 45 47 50 53 55 58
48 46 45 42 43 48 49 48 43 41 39 37 34 33 30 27 28 27 27 28 28 28 28 29 30 30 31 32 33 34 36 38 39 40 40 40 40 41 41 41 42 43 45 48 51 55 58 62 65
45 45 42 41 43 48 48 45 41 38 37 36 34 31 29 27 28 27 27 27 27 28 28 29 30 31 32 34 35 37 38 39 39 40 40 40 40 40 41 42 43 46 49 53 56 60 64 67 70
48 48 44 43 46 48 44 43 40 38 36 34 31 30 28 27 27 28 27 27 27 28 29 30 31 33 34 36 37 38 39 39 40 40 40 40 40 41 42 44 47 51 55 58 61 65 68 70 73
50 48 44 46 47 44 41 41 39 37 32 30 30 29 27 26 27 27 27 27 28 29 30 31 33 34 35 37 37 38 38 39 39 39 40 40 41 43 45 49 53 56 60 63 66 68 71 73 75
48 47 41 41 40 38 40 38 36 32 29 29 27 26 25 25 26 26 27 28 29 30 31 32 34 35 36 36 37 37 38 38 38 39 40 41 44 47 50 54 57 60 63 66 69 72 74 76 77
44 44 40 38 37 36 37 35 33 28 27 27 25 24 24 25 25 26 27 28 29 30 32 33 34 34 35 36 37 37 37 38 38 40 42 44 48 51 55 58 61 65 68 71 73 74 76 77 79
43 43 40 38 35 34 33 31 31 27 25 25 24 24 25 26 26 27 28 28 29 31 32 32 33 34 35 36 37 37 37 38 40 42 45 49 52 55 59 62 66 69 72 74 75 75 76 78 80
38 39 38 36 34 30 27 27 26 24 23 24 24 25 26 27 27 28 28 29 30 32 32 33 33 34 35 36 37 37 38 40 43 46 49 53 56 60 63 67 70 73 74 74 74 75 77 80 84

GEFSSGP_500_meanwind_030.txt.gz
Wind_Speed
29 27 26 23 20 17 17 20 25 26 25 23 19 20 23 24 24 24 22 22 20 19 19 18 18 17 17 17 16 15 15 15 14 14 13 12 13 14 16 17 17 17 16 16 17 18 18 19 20
31 30 29 26 23 19 20 23 25 25 24 22 21 23 25 25 24 24 22 22 21 20 19 19 19 18 18 17 16 15 15 15 14 14 13 12 13 15 17 18 19 18 18 17 17 17 18 19 20
31 32 32 29 25 23 23 24 25 22 21 22 22 25 26 25 24 24 23 23 22 20 20 20 20 19 18 17 16 15 14 14 14 14 14 13 13 15 16 18 19 20 19 19 19 20 20 21 22
31 33 34 32 27 25 25 26 24 21 20 21 23 25 27 26 24 23 22 22 22 21 20 20 21 20 19 17 16 14 14 14 14 14 14 14 15 15 16 17 19 20 21 22 22 23 23 24 24
32 32 34 33 30 28 29 28 25 22 22 22 23 26 26 26 24 22 21 21 22 22 21 21 21 21 19 18 15 14 13 14 14 14 15 15 16 16 17 17 18 20 21 23 24 25 26 27 27
35 33 34 32 31 31 33 31 27 23 24 24 24 25 25 24 24 22 21 19 20 21 21 21 21 21 20 19 16 14 13 14 14 15 16 16 17 18 19 19 20 21 21 23 24 25 26 27 28
37 36 34 31 32 34 35 32 28 25 25 25 23 24 24 24 24 23 21 19 19 20 21 22 23 22 22 20 17 15 14 14 14 15 16 17 18 19 20 21 22 23 23 24 25 26 26 27 28
37 38 35 32 31 32 36 35 31 29 27 26 24 25 25 26 25 23 21 19 20 20 21 23 23 23 23 21 19 17 16 15 14 14 15 17 18 18 19 20 21 23 24 25 26 27 28 29 29
37 38 33 30 30 30 37 38 37 33 28 26 25 27 28 29 27 24 22 21 21 21 22 23 23 24 23 22 21 19 18 17 15 15 16 17 17 18 19 19 20 20 22 23 24 25 27 28 30
37 35 29 29 30 31 37 40 40 36 29 26 26 28 31 30 27 25 23 23 23 23 22 23 23 24 23 23 23 21 20 19 18 17 18 18 19 19 20 20 20 21 21 22 23 24 26 28 30
37 34 30 30 32 35 39 41 41 38 31 27 28 30 32 29 26 26 26 25 25 24 23 23 23 24 24 24 24 23 22 21 21 21 21 22 22 22 23 23 24 24 24 25 26 27 28 30 31
39 36 35 33 34 37 40 42 42 39 33 30 30 31 32 29 28 28 28 27 27 25 24 23 24 25 25 25 25 24 24 24 24 24 24 25 26 26 26 27 27 27 28 28 29 31 32 33 34
41 40 39 37 37 39 41 43 42 39 35 34 32 32 33 31 29 29 29 28 28 26 25 23 23 25 25 25 26 25 25 25 25 25 25 27 28 29 30 31 31 32 32 32 32 34 35 36 37
43 42 41 40 40 40 42 42 41 37 36 36 36 34 34 33 30 29 29 29 28 26 26 25 25 25 24 24 24 25 25 25 25 25 26 28 30 32 33 34 35 35 35 35 36 36 37 38 39
44 44 44 43 43 42 44 44 41 37 35 37 37 36 36 34 30 29 30 29 28 26 25 26 26 25 24 22 23 23 24 24 25 25 26 28 30 31 32 33 34 35 36 37 38 39 39 39 40
45 46 46 45 46 45 47 44 40 39 36 37 37 38 38 34 30 30 30 29 28 26 25 26 26 25 23 22 21 22 22 23 24 25 27 28 30 31 31 31 31 32 34 36 37 39 40 41 41
47 47 47 46 47 48 50 46 43 41 38 38 38 39 39 35 30 29 31 29 27 26 26 26 26 24 23 22 21 21 22 23 24 26 28 30 30 30 30 31 32 33 35 37 38 40 41 41 42
47 48 48 48 48 49 50 48 46 44 41 40 39 40 41 36 30 30 31 30 28 27 27 26 25 24 23 22 22 23 23 24 26 28 30 30 31 31 31 32 34 36 38 40 41 42 43 43 42
51 52 52 51 50 52 53 52 49 47 44 42 41 41 40 36 32 30 30 29 28 28 27 26 25 24 24 23 24 24 25 26 28 30 30 31 31 33 34 36 38 39 41 42 42 43 44 44 43
52 53 52 52 51 53 54 54 52 50 47 45 43 42 41 37 33 30 29 29 29 28 27 26 26 25 25 25 25 26 27 28 30 31 31 32 34 35 37 39 40 41 42 42 42 42 43 44 44
53 53 51 51 50 53 55 56 54 52 50 48 45 43 42 38 33 30 30 29 29 28 27 26 26 26 27 27 27 28 29 31 31 32 33 34 36 38 40 42 42 42 42 42 43 43 43 45 48
51 49 50 50 51 52 53 56 55 52 51 49 45 43 42 37 33 30 30 30 29 28 27 27 27 28 28 28 29 30 31 32 32 33 35 37 39 41 42 42 42 42 43 43 44 45 46 49 51
47 46 48 49 51 52 52 56 55 51 51 48 44 43 41 37 33 30 30 30 29 28 27 27 27 28 29 29 30 31 32 33 34 35 37 39 41 42 43 42 42 43 44 45 46 48 51 54 57
43 45 47 49 50 54 50 53 55 49 46 45 43 42 40 36 33 30 31 30 28 28 28 27 27 28 29 30 31 32 33 34 35 37 39 41 42 43 43 43 44 44 46 47 49 52 55 58 62
40 41 44 47 51 53 47 52 53 43 41 40 40 40 38 35 32 30 30 30 29 28 27 27 27 28 29 30 31 32 34 35 37 39 40 41 42 43 44 44 45 46 48 50 53 56 59 62 65
36 39 42 44 47 46 46 51 47 38 38 38 38 38 36 33 31 30 31 30 29 28 27 27 27 28 29 30 31 33 35 37 39 40 41 42 43 44 44 45 46 48 50 53 56 59 62 65 67
34 36 35 39 39 40 43 44 40 36 35 35 35 35 32 31 30 30 30 29 27 27 27 27 27 28 29 31 32 34 36 38 39 40 42 43 44 44 45 47 49 51 53 56 59 62 65 67 68
31 32 36 39 34 35 38 40 37 34 33 32 31 30 28 29 29 29 27 26 26 26 26 26 27 28 29 31 33 34 36 38 40 41 42 43 44 45 47 49 51 54 56 59 63 65 66 67 68
28 33 37 35 32 29 32 32 29 28 27 26 26 27 27 27 27 26 25 24 24 24 25 25 27 28 30 31 33 34 36 39 40 41 43 44 45 47 49 51 54 56 60 62 64 66 67 68 69
23 29 35 35 30 25 24 26 26 26 26 26 27 27 27 26 25 24 23 23 23 23 23 25 26 28 30 31 33 35 37 39 40 42 43 45 47 49 51 54 57 60 62 64 66 66 68 70 72

GEFSSGP_500_meanwind_036.txt.gz
Wind_Speed
28 29 30 30 28 26 24 24 24 23 22 22 23 23 21 21 21 22 19 19 18 18 18 18 17 17 17 16 16 16 16 15 14 14 13 12 12 12 13 13 15 16 17 18 19 20 20 21 22
27 28 30 32 31 28 27 27 26 25 23 22 22 23 22 22 22 22 22 20 19 19 19 19 19 18 18 17 17 17 16 16 15 14 13 13 12 12 13 14 15 17 18 19 20 21 21 21 21
28 28 30 31 31 28 28 28 27 26 24 22 22 23 23 23 23 24 24 22 20 20 20 20 20 20 19 18 17 17 17 16 15 14 13 13 13 13 13 14 15 17 18 20 21 22 22 22 23
30 30 30 30 28 28 31 30 29 28 26 24 22 22 23 24 25 26 25 24 22 21 21 21 21 20 20 19 18 17 17 16 15 14 14 13 13 14 14 15 16 17 18 19 20 21 22 23 24
33 33 32 29 25 27 32 33 32 30 28 26 24 22 23 24 25 26 26 25 24 23 22 22 22 21 20 19 18 18 17 17 15 15 14 14 14 14 15 15 16 18 18 19 20 21 22 24 25
34 34 34 29 24 27 32 34 34 32 30 29 27 25 24 24 26 26 26 25 24 23 22 22 21 21 20 19 18 18 18 17 16 15 15 15 15 15 15 16 17 18 20 21 22 23 24 25 26
35 35 34 29 26 28 31 35 35 34 33 33 31 28 25 25 26 26 25 24 23 22 22 21 20 20 19 19 19 19 19 19 17 17 16 16 16 16 16 16 17 18 19 21 22 23 25 26 27
36 37 34 29 25 26 32 35 36 36 36 36 34 31 28 27 26 25 25 23 22 22 21 20 20 19 19 19 19 20 21 21 20 18 18 17 17 16 16 16 17 18 19 20 21 22 24 25 26
36 37 32 26 26 27 33 37 37 37 37 38 37 35 31 29 28 27 25 24 23 22 21 21 20 20 20 19 20 21 22 22 21 20 19 19 18 18 17 17 18 19 20 20 22 23 24 25 26
35 35 29 27 28 30 35 40 40 39 38 39 38 36 35 32 30 27 25 24 23 23 22 22 22 21 21 20 20 21 22 23 23 22 21 21 20 20 20 20 21 22 23 24 25 26 27 27 28
34 33 30 30 30 33 37 41 42 41 39 38 39 39 38 35 32 28 27 26 26 25 24 24 23 23 22 22 21 21 21 22 24 24 23 22 22 22 23 23 24 26 27 29 31 31 32 32 33
34 32 32 31 32 35 37 41 43 41 38 38 39 40 40 38 34 31 29 28 28 27 26 26 25 25 24 23 22 21 21 22 23 25 25 24 24 24 25 26 27 29 30 32 33 34 34 35 37
34 33 34 33 34 35 37 39 42 40 37 38 39 39 39 39 36 33 31 30 30 29 28 28 27 27 26 24 23 22 21 21 23 24 25 25 25 25 26 27 29 30 31 31 32 32 33 34 35
34 34 35 35 36 37 38 39 42 37 38 38 38 38 38 39 38 36 34 32 31 30 30 30 29 29 27 26 24 22 21 22 23 25 25 25 25 26 27 28 29 29 29 30 30 31 31 33 34
35 36 36 37 38 39 41 43 40 37 40 40 38 37 37 38 39 39 37 34 32 31 31 31 30 30 29 27 25 22 21 23 24 25 24 25 25 26 27 28 28 29 30 30 31 31 32 33 35
36 38 38 38 40 41 45 45 40 41 43 42 40 38 37 36 38 39 39 37 34 32 31 31 31 30 30 28 26 23 23 24 25 25 25 25 25 26 27 28 29 30 30 31 31 32 33 35 37
39 40 41 41 43 44 47 47 43 44 46 44 43 41 39 37 37 38 40 39 37 34 32 32 31 30 30 28 26 25 25 26 26 26 26 25 26 27 28 29 30 31 31 32 33 34 36 38 40
41 43 45 45 46 47 49 49 46 46 49 47 45 44 41 38 37 39 40 40 38 36 33 32 31 30 29 28 27 26 27 27 28 27 26 27 28 29 30 30 31 31 32 34 35 37 39 40 41
45 46 47 47 48 49 50 51 49 48 50 50 48 46 43 40 39 40 40 39 38 37 34 33 32 31 29 28 28 28 29 29 29 28 28 29 30 31 31 32 32 33 34 36 38 40 41 41 41
46 48 49 49 50 52 52 53 52 51 50 50 50 48 45 43 41 41 40 38 38 37 36 34 33 32 30 29 28 29 29 30 29 29 30 31 31 32 33 33 34 35 37 39 40 42 42 43 43
47 49 50 52 53 54 55 54 53 53 52 51 51 49 47 45 44 42 40 38 38 38 37 35 34 33 31 29 28 29 30 30 30 31 31 32 33 34 35 36 37 38 40 41 42 43 45 46 46
49 50 53 54 56 56 57 59 52 52 53 53 51 50 49 48 47 44 41 38 37 38 37 36 35 34 32 30 29 29 30 30 31 32 33 34 35 36 37 38 39 41 42 43 44 45 47 47 48
49 50 52 54 57 59 58 62 56 50 51 51 51 50 50 49 48 45 42 38 38 38 38 37 35 34 32 30 29 29 30 30 31 32 34 35 36 38 39 40 41 43 44 45 46 47 48 49 50
48 49 51 53 56 60 57 61 60 53 49 48 50 51 50 49 48 46 43 40 39 38 38 37 35 34 32 30 29 29 29 30 32 33 35 36 38 39 40 42 43 44 45 46 48 49 50 51 53
45 47 50 54 56 59 57 60 60 55 52 48 48 50 51 50 49 47 44 41 39 38 37 37 35 34 32 31 30 29 29 30 32 34 35 37 38 39 41 42 44 45 46 47 49 50 52 53 56
42 45 48 52 54 55 54 58 54 53 53 50 47 48 50 50 48 47 44 41 39 38 38 37 35 34 32 31 30 30 30 31 33 34 36 37 38 40 41 43 44 46 47 49 50 52 54 56 59
39 41 42 46 49 51 51 49 47 47 50 49 46 47 48 48 47 45 44 42 40 39 38 37 35 34 32 31 30 30 30 32 33 34 35 37 39 40 42 44 46 47 49 50 52 54 56 59 61
34 36 37 41 45 47 46 42 37 36 38 40 43 45 46 46 45 43 42 42 40 39 39 37 35 34 33 31 30 30 31 32 33 34 36 38 39 41 43 45 47 49 51 53 54 56 59 61 64
30 32 33 36 39 41 40 31 25 26 28 33 38 42 44 43 41 40 41 41 40 39 38 37 35 33 32 31 31 31 31 32 33 34 36 38 40 42 44 47 49 51 53 55 57 59 61 64 67
28 28 29 32 33 33 33 19 16 17 22 29 36 39 41 40 39 38 39 39 39 38 37 35 33 33 32 31 31 31 31 32 33 34 36 39 41 43 46 48 50 52 54 56 59 61 64 66 68

GEFSSGP_500_meanwind_042.txt.gz
Wind_Speed
23 25 27 27 28 28 27 26 25 23 21 20 19 19 19 21 21 21 19 19 19 18 18 19 19 19 20 19 18 17 16 15 14 13 12 12 11 12 12 13 13 14 14 15 16 17 17 18 19
22 23 25 26 27 26 27 28 28 26 23 22 20 19 20 21 21 21 21 21 20 19 19 19 20 20 20 20 19 18 17 16 15 15 14 13 12 12 13 14 14 15 15 16 16 18 18 19 20
24 24 25 25 24 23 26 28 30 28 26 24 23 22 21 21 20 21 22 22 22 21 21 20 20 21 20 20 20 19 18 17 17 16 15 14 14 13 14 15 16 16 16 17 17 18 19 20 21
27 27 27 25 21 21 25 27 29 30 29 27 25 24 23 22 22 23 22 23 23 23 23 22 22 22 21 21 20 20 19 18 18 17 16 15 15 14 15 16 16 17 17 17 18 19 19 19 20
29 29 29 25 20 21 25 27 28 30 30 30 28 26 25 24 23 23 23 23 23 24 25 25 24 24 23 22 21 21 20 20 19 19 18 17 16 15 16 16 17 17 18 18 19 19 20 20 21
31 30 30 25 21 23 27 28 29 30 31 31 30 29 28 26 25 24 24 23 24 24 25 26 26 26 26 24 22 21 21 21 21 20 19 18 17 17 17 17 17 17 17 18 18 18 19 19 20
32 31 29 25 24 26 28 31 30 30 31 32 32 32 30 29 28 26 25 24 24 24 24 25 27 27 26 24 22 22 22 22 22 21 21 20 19 18 18 17 17 17 18 17 17 18 18 18 19
32 31 29 25 24 26 29 33 32 31 32 32 33 33 33 32 30 29 27 25 25 24 25 26 26 26 25 24 22 22 22 22 22 23 23 23 21 20 20 19 19 18 18 18 18 18 19 20 20
32 31 27 24 25 28 31 34 35 33 33 33 34 34 34 34 33 32 30 29 27 26 26 27 27 27 26 24 23 22 21 22 22 23 24 24 24 23 21 20 20 19 19 19 19 20 21 22 24
31 29 25 25 27 30 32 35 37 35 34 34 34 34 34 35 35 34 33 32 30 29 28 28 28 29 28 26 25 23 21 21 22 23 25 25 25 25 23 22 21 21 21 21 22 23 24 25 27
29 27 26 26 28 29 31 34 36 37 35 34 35 35 34 34 35 35 35 35 34 32 30 30 30 30 30 29 27 25 22 22 22 23 25 26 26 26 25 24 23 23 23 23 24 25 26 27 28
28 27 26 26 27 28 30 32 35 36 34 35 36 36 35 35 35 35 35 36 36 34 32 32 32 32 32 32 30 27 24 23 23 24 25 26 27 27 26 25 25 25 25 25 26 27 27 28 28
28 26 26 25 26 27 28 30 34 35 34 36 36 36 36 35 34 35 36 36 36 35 35 34 33 33 34 34 32 30 27 25 25 25 26 27 27 27 26 25 26 26 26 26 27 28 28 29 28
28 26 26 25 25 26 27 30 32 30 34 36 36 36 36 36 35 35 35 36 37 37 37 36 35 35 34 34 34 33 30 28 27 27 28 28 28 27 26 26 27 27 27 28 29 29 30 30 29
28 27 26 26 27 27 29 29 30 30 35 37 37 36 36 36 37 37 36 36 37 38 38 38 37 36 35 35 35 34 32 31 30 30 30 30 29 28 28 28 28 28 28 29 30 30 30 31 30
29 28 28 28 29 30 30 29 30 33 35 37 38 39 38 37 37 37 37 38 38 39 39 40 39 37 36 36 36 35 34 33 32 32 32 31 31 30 30 29 29 29 29 30 30 31 31 32 32
29 29 29 30 31 31 32 32 32 34 37 38 40 41 41 41 39 38 38 39 40 40 40 41 40 39 38 37 36 36 35 35 34 34 34 33 33 32 31 31 31 30 31 31 32 32 33 33 34
29 30 31 31 33 34 36 36 36 37 39 40 42 43 44 44 43 41 40 41 41 42 42 41 41 41 40 39 37 36 36 36 36 36 36 35 34 34 33 32 32 32 32 33 33 34 35 35 36
30 31 33 34 36 39 39 40 40 41 42 42 43 45 47 47 46 45 44 43 43 43 43 42 43 42 42 41 39 37 37 37 37 37 37 36 35 35 34 34 34 34 34 35 35 36 37 37 38
31 33 36 38 41 43 44 44 44 45 44 44 45 46 48 49 50 49 48 46 45 44 44 43 43 43 43 42 41 39 38 38 37 37 37 36 35 35 36 36 36 36 36 37 38 39 39 39 40
33 36 39 42 44 46 49 50 48 48 46 47 48 48 49 50 51 51 50 49 46 46 45 44 43 43 44 43 42 40 38 38 37 37 37 36 36 37 37 37 37 38 38 39 40 41 42 42 43
36 39 42 44 47 49 50 54 50 50 48 47 48 51 52 52 52 52 52 50 48 47 46 45 44 44 44 43 42 41 39 38 37 37 37 37 37 37 37 38 38 39 40 41 42 43 44 45 46
38 40 43 46 48 51 51 55 52 51 51 49 49 52 54 55 54 53 53 52 50 49 47 46 45 44 44 43 42 41 39 37 37 37 37 37 38 38 38 39 40 41 42 43 44 44 45 47 48
38 41 43 46 48 51 50 54 53 50 52 52 52 52 54 56 56 54 54 53 52 51 50 48 45 43 43 43 42 40 38 37 37 37 37 37 38 38 39 40 41 42 43 44 44 45 46 48 50
37 39 42 45 47 49 49 52 50 48 51 53 54 54 54 56 58 57 55 54 53 52 50 48 45 43 42 42 41 40 39 38 37 37 37 38 38 39 40 41 42 42 43 44 45 46 48 50 52
34 36 38 42 45 47 49 50 46 45 49 52 54 54 54 54 55 57 56 54 54 52 50 48 45 43 42 41 40 39 38 37 37 37 37 38 39 39 40 41 42 43 43 44 45 47 49 52 54
31 33 36 41 44 47 48 47 44 42 46 49 51 50 51 52 53 56 56 54 54 52 50 48 45 44 43 41 40 39 38 37 37 38 38 38 39 39 40 41 42 43 43 44 46 49 51 54 56
31 33 35 39 43 46 45 42 39 37 39 42 45 47 47 48 50 53 55 54 53 51 50 48 46 45 44 42 41 39 38 37 37 38 38 38 38 39 40 41 41 42 43 45 48 51 53 56 58
29 30 33 37 40 43 44 38 35 34 35 36 38 40 42 44 46 50 54 53 51 50 49 48 46 45 44 42 40 39 37 37 37 37 38 38 38 39 40 41 41 42 44 47 50 53 56 58 60
25 27 31 34 37 39 41 34 30 30 30 30 31 34 36 39 43 48 51 51 50 48 47 46 45 45 43 42 40 38 37 37 37 38 38 38 39 39 40 40 42 44 46 49 53 55 57 59 62

GEFSSGP_500_meanwind_048.txt.gz
Wind_Speed
31 31 31 31 31 29 25 25 26 24 23 24 21 17 18 23 26 26 23 22 21 21 21 21 21 21 21 22 22 23 23 23 23 22 21 20 19 18 17 17 16 17 17 17 17 17 17 17 17
32 32 33 33 32 29 25 26 28 27 27 24 21 21 21 26 26 22 23 22 22 22 22 22 23 23 22 23 23 23 24 24 24 23 22 21 20 19 19 18 18 18 18 18 18 19 19 19 19
33 33 33 32 30 26 24 26 30 29 27 25 25 24 25 30 25 21 23 23 22 22 22 23 23 23 23 23 23 23 24 24 24 24 23 22 21 21 20 19 19 19 19 19 20 20 20 20 20
33 33 33 31 26 22 24 28 30 27 26 27 27 26 29 30 24 22 24 24 23 23 23 23 23 24 24 24 24 24 24 24 24 25 24 23 22 21 21 20 20 20 20 20 20 21 21 21 21
34 34 34 30 23 22 25 28 29 24 25 26 26 27 32 29 27 26 26 25 25 24 24 24 25 25 25 26 26 26 26 25 25 25 24 24 23 23 22 21 21 21 21 21 21 21 21 21 21
36 35 34 29 22 24 26 29 29 25 26 26 25 27 33 29 29 28 27 27 27 26 25 26 26 26 26 26 26 27 27 26 26 25 25 25 24 24 23 22 22 21 21 21 20 20 20 21 21
36 36 35 30 26 27 27 30 31 27 27 26 27 27 32 30 28 29 29 29 29 27 26 28 28 28 27 27 27 26 26 26 26 26 26 25 25 24 24 23 22 22 21 21 20 20 21 21 21
37 38 36 32 28 27 28 33 34 29 28 29 29 26 33 31 27 28 29 30 30 30 28 29 29 29 28 28 27 27 26 26 26 26 26 25 25 25 24 24 23 23 22 21 21 21 21 21 22
39 40 37 31 29 29 32 37 37 30 30 31 29 28 32 31 26 27 29 30 31 31 31 30 30 30 29 29 29 28 27 26 26 26 26 25 25 25 25 25 25 24 23 23 23 22 22 23 23
41 41 36 31 32 34 36 40 36 31 32 31 31 30 31 31 28 28 29 30 31 32 32 31 31 31 30 30 29 29 28 27 26 26 26 25 25 25 26 26 26 26 26 25 25 25 25 25 26
42 40 36 34 36 37 37 37 35 34 33 31 32 32 32 32 30 29 30 30 31 32 33 32 32 32 32 31 31 30 29 28 27 27 27 26 26 25 25 26 26 27 27 28 28 27 28 28 28
42 41 38 37 38 36 35 36 36 35 33 33 34 34 31 28 28 29 30 31 31 31 32 33 33 33 33 33 32 32 31 30 30 29 28 28 27 26 26 26 26 27 28 29 30 30 30 31 31
43 41 39 38 38 35 35 36 36 35 33 33 33 32 29 26 28 30 31 31 32 32 31 33 34 34 34 34 33 33 32 32 31 30 30 29 29 28 27 27 27 28 29 30 31 31 32 32 32
43 41 40 38 37 36 36 36 35 32 33 33 33 31 29 27 28 30 31 31 32 33 33 33 35 36 36 35 35 34 34 33 32 32 32 32 31 31 30 29 28 29 29 31 32 33 33 33 34
42 40 39 38 37 37 37 36 34 32 34 33 32 31 29 28 29 30 31 31 32 33 35 35 35 37 37 36 36 36 35 35 34 34 33 33 33 33 32 31 31 31 31 32 33 34 34 34 35
42 41 40 38 38 38 38 35 34 34 34 33 32 32 31 29 30 30 31 32 32 34 36 37 37 37 38 38 37 37 37 36 36 35 35 35 35 35 34 33 33 33 33 34 35 35 36 36 36
42 41 40 39 39 38 38 35 34 35 34 33 33 33 32 31 31 31 32 33 33 35 37 38 38 38 39 39 39 38 38 37 37 36 35 35 36 36 36 36 35 35 36 36 36 37 37 37 37
41 41 40 39 39 38 38 37 35 35 35 34 34 35 35 35 34 34 34 35 36 37 39 40 40 40 40 41 40 39 39 39 38 36 36 36 36 37 37 37 37 38 38 39 38 38 38 38 39
39 38 37 38 39 39 38 37 35 35 35 35 36 37 38 38 38 38 39 39 39 40 41 42 42 41 42 43 42 40 40 40 39 38 37 37 37 38 38 38 39 39 39 39 39 39 39 40 40
36 35 35 36 37 38 38 37 36 36 37 37 38 39 40 41 42 42 42 43 43 43 44 44 45 44 44 45 44 43 42 41 39 39 38 38 38 39 39 40 40 40 40 39 40 40 41 41 42
32 33 33 33 34 35 37 38 37 37 38 39 40 42 44 45 46 46 46 47 47 47 47 47 47 48 47 47 47 46 44 42 40 40 39 39 39 39 40 40 40 41 40 40 41 41 42 42 43
30 29 29 30 32 33 36 39 37 38 40 43 44 45 47 49 50 50 51 51 51 50 51 50 50 50 51 50 49 47 46 44 42 41 40 40 39 39 39 40 41 41 41 41 41 42 41 42 43
27 26 27 29 32 34 35 40 39 41 43 46 48 49 50 51 53 54 55 55 55 54 54 53 53 52 53 53 50 48 48 46 44 43 41 40 40 40 40 40 41 41 41 42 42 41 42 43 44
25 26 28 30 33 35 36 40 40 43 46 48 50 52 53 53 54 54 55 56 56 57 57 56 55 54 53 53 51 50 49 48 46 44 42 41 41 40 40 40 40 41 41 41 42 42 43 44 46
25 26 29 32 34 36 39 42 40 42 45 48 49 51 53 54 54 54 54 54 55 56 57 57 56 55 54 52 51 51 50 49 47 46 44 42 41 40 40 40 40 40 40 41 41 42 44 46 47
26 27 30 33 35 37 40 42 40 41 44 46 48 49 50 51 52 52 52 53 54 55 56 57 56 55 54 52 51 51 50 49 48 46 44 43 42 41 40 40 39 39 39 40 41 43 45 47 48
26 28 30 33 36 38 39 39 38 40 43 45 47 50 51 52 52 52 52 52 51 52 54 55 55 54 53 52 51 50 49 49 48 46 44 43 42 41 40 39 39 39 40 41 42 44 46 48 49
27 28 30 32 35 37 36 36 37 39 42 44 47 50 52 53 52 52 51 51 50 50 51 53 53 53 52 52 51 49 48 48 47 45 44 43 41 40 39 39 39 39 40 42 43 45 47 48 49
27 28 29 31 33 35 36 35 36 38 40 43 47 49 51 52 51 50 50 49 48 48 49 50 51 51 51 50 49 48 47 46 45 44 43 42 40 39 39 39 39 40 41 43 45 46 48 49 50
26 26 27 29 31 33 36 34 33 36 39 42 45 47 48 48 48 47 46 45 44 44 44 45 47 49 49 48 46 46 45 44 43 43 42 41 40 39 38 39 39 41 42 44 46 47 48 50 52

GEFSSGP_500_meanwind_054.txt.gz
Wind_Speed
36 35 33 32 31 30 26 25 27 27 26 23 23 25 26 25 21 18 19 20 18 17 18 19 19 19 19 19 19 19 20 21 21 22 22 22 22 22 22 22 22 21 21 21 21 21 21 21 21
37 36 36 35 33 30 26 28 31 31 27 24 24 26 27 25 22 19 20 20 19 18 18 19 19 20 20 21 21 21 22 22 22 23 23 24 24 24 24 24 24 23 23 22 22 22 22 22 22
39 38 38 37 34 28 27 32 34 33 29 28 28 30 31 27 23 21 21 20 19 19 19 19 20 20 21 22 22 23 23 23 23 24 24 25 25 25 25 25 25 25 24 24 24 24 23 24 24
41 40 40 38 33 27 30 34 36 34 32 30 31 33 33 29 25 23 22 22 21 21 21 20 21 21 22 22 23 23 24 24 24 24 25 25 26 26 26 27 27 26 26 26 25 25 25 24 24
43 43 42 38 31 28 32 36 36 34 32 31 32 34 34 30 28 26 25 24 24 23 23 22 22 22 22 22 23 23 23 24 25 25 25 26 26 27 27 27 27 27 27 27 26 26 25 25 25
45 44 42 37 30 30 32 35 36 34 32 30 31 34 35 32 29 28 27 27 27 26 25 24 24 24 24 24 24 24 24 24 24 25 25 25 25 26 26 27 27 27 27 27 27 27 26 26 25
45 44 42 36 32 32 32 35 37 34 32 30 31 34 33 30 28 28 28 28 28 28 26 26 26 26 26 25 25 24 24 24 24 24 25 24 24 24 25 26 26 26 26 26 27 27 26 26 25
46 45 42 37 33 31 32 36 37 35 32 31 32 32 30 27 26 26 26 26 27 26 27 27 27 27 26 26 26 25 25 25 25 25 24 24 24 24 24 24 25 25 25 26 26 26 26 26 25
46 46 42 36 33 32 34 37 37 36 33 33 31 30 29 27 26 25 24 24 24 25 26 27 27 27 27 27 27 27 26 26 26 26 25 25 24 23 23 23 24 24 25 25 25 26 26 26 25
47 46 40 35 34 34 36 38 38 37 35 33 30 29 28 27 26 24 24 24 24 25 26 26 27 27 27 27 27 27 27 27 27 26 26 25 25 24 23 23 23 24 25 25 26 26 27 27 27
46 45 40 36 36 37 38 39 40 39 37 33 30 29 29 28 25 24 24 24 24 25 25 25 25 26 26 27 27 27 27 28 27 27 27 26 26 26 24 24 24 24 24 25 26 26 27 28 28
46 45 41 39 39 40 40 41 41 40 37 32 29 30 30 28 25 24 24 24 24 25 25 25 25 25 26 26 27 27 27 28 28 28 27 27 27 27 26 25 25 24 25 25 26 27 28 28 29
47 46 44 42 42 42 41 40 40 39 36 32 31 32 32 29 27 25 25 25 25 25 25 25 25 26 26 26 27 27 28 28 28 28 28 28 28 28 27 27 26 26 26 26 27 27 28 28 29
49 48 46 44 43 43 41 39 39 38 37 35 34 34 33 31 28 27 26 26 27 26 26 25 25 26 27 27 28 28 29 29 29 29 29 29 29 29 28 28 28 28 28 28 28 28 29 29 30
50 49 48 46 44 44 43 41 39 38 40 39 36 34 34 31 29 27 27 28 28 27 27 26 26 27 27 28 29 29 30 30 30 30 30 30 30 30 29 29 30 30 29 29 29 29 30 31 31
50 49 48 45 45 45 44 41 40 41 42 40 37 35 34 31 29 28 28 28 29 29 29 28 27 27 28 29 30 31 31 31 31 32 32 31 31 31 31 31 31 31 31 31 31 31 31 32 32
50 49 47 45 45 45 45 42 40 42 42 40 38 36 34 32 31 29 30 30 31 31 31 30 30 29 29 30 31 32 32 32 33 33 33 33 33 32 32 33 32 32 32 32 32 32 32 33 33
46 46 46 45 45 44 44 42 39 41 41 39 38 36 35 34 32 32 33 33 33 33 33 33 33 32 32 33 34 34 34 34 34 34 35 35 34 34 34 34 34 33 33 33 33 33 34 34 35
43 44 44 43 43 43 43 41 38 39 40 39 38 37 37 35 35 36 36 35 36 36 36 36 35 35 35 35 36 36 36 37 37 37 37 37 36 36 36 35 35 34 34 34 35 35 35 36 36
40 41 40 41 42 42 42 41 38 38 40 39 39 38 37 37 37 37 38 38 38 38 39 39 39 39 39 39 39 40 40 40 41 40 39 39 38 38 38 37 36 35 35 35 35 36 36 36 36
36 37 37 38 39 40 40 39 37 36 38 38 38 38 38 38 39 40 40 41 41 41 42 43 43 43 43 43 43 43 44 43 42 42 41 41 41 41 41 39 37 37 36 36 36 36 36 36 36
32 32 32 33 35 36 38 37 32 34 35 35 36 37 38 39 40 41 42 43 44 45 46 46 47 47 47 48 47 47 46 45 45 44 44 45 44 44 43 41 39 38 37 37 37 37 37 37 37
28 27 28 29 31 32 33 35 29 30 31 33 34 36 38 39 41 42 43 45 47 48 49 50 51 52 52 52 51 51 50 49 48 48 48 47 47 46 44 43 41 40 39 38 38 37 38 38 38
25 24 24 25 27 28 27 31 28 27 29 32 34 36 38 40 42 45 47 49 50 52 53 54 55 55 56 56 56 55 54 52 51 50 50 49 49 48 46 45 44 43 41 40 39 38 38 39 40
23 23 23 23 24 24 24 26 27 27 29 32 34 37 40 43 45 47 49 51 52 54 55 56 57 57 57 58 58 58 56 55 53 52 51 51 50 49 48 47 46 45 43 41 40 39 39 40 41
22 22 22 21 21 21 22 24 26 27 29 32 35 38 40 43 46 48 49 51 53 54 56 57 57 58 58 58 58 58 58 56 54 54 53 52 51 50 49 48 47 46 44 42 41 40 41 42 43
22 21 20 20 20 21 22 23 25 27 29 32 34 37 40 42 44 46 49 51 53 55 56 57 58 58 58 58 57 57 57 56 54 53 53 53 52 51 50 48 47 46 45 43 42 41 42 43 43
21 19 19 19 20 21 21 21 23 26 28 31 33 36 38 41 44 47 50 52 54 56 56 57 57 57 57 57 57 56 55 55 54 52 52 52 51 50 49 48 48 47 45 43 43 42 43 43 44
19 19 18 19 19 20 20 19 22 25 27 29 32 35 38 41 44 47 50 52 54 54 55 55 55 55 54 55 55 55 54 53 52 52 51 50 50 49 48 47 47 46 44 43 42 42 43 44 46
19 18 18 18 18 19 19 19 22 24 26 29 31 34 37 40 43 46 48 50 51 51 51 51 51 51 51 51 52 53 52 52 51 50 49 49 48 47 46 45 45 43 42 42 41 42 43 45 46

GEFSSGP_500_meanwind_060.txt.gz
Wind_Speed
42 40 39 38 38 36 32 30 30 30 30 29 29 28 27 25 24 22 20 19 19 18 17 16 16 17 18 18 18 17 17 17 16 17 17 17 18 18 19 20 20 20 20 20 20 20 20 20 20
43 41 41 41 40 36 31 30 31 31 30 29 29 28 27 26 25 23 22 21 20 19 18 18 18 18 18 18 18 18 18 18 18 18 17 18 18 18 19 20 20 21 21 21 21 21 21 21 22
43 43 43 43 41 35 30 31 32 32 30 30 30 29 28 27 26 24 23 22 21 20 19 18 18 18 18 18 18 18 18 18 18 18 18 18 18 18 18 19 20 20 21 22 22 22 22 22 23
45 45 45 45 40 32 31 34 34 33 32 32 31 30 29 28 27 26 24 24 22 21 20 20 19 19 19 18 18 18 18 18 18 19 19 18 18 18 18 18 19 20 20 21 22 22 22 23 23
46 47 47 45 38 32 33 35 35 34 34 34 33 32 30 29 28 27 26 25 24 23 23 22 21 21 20 20 19 19 19 19 19 19 19 19 19 19 19 19 19 20 20 21 22 22 22 22 23
48 48 48 44 36 33 34 36 37 36 35 35 34 33 31 29 28 28 28 27 26 26 25 24 24 23 22 22 22 22 21 21 21 21 21 20 20 20 20 20 20 20 20 21 21 22 22 22 23
49 49 47 42 37 35 35 38 39 37 36 36 35 34 31 29 30 30 29 29 28 27 27 26 26 25 25 24 24 23 23 23 22 22 21 22 21 21 21 20 20 20 21 21 21 21 22 22 23
51 50 47 43 39 36 37 40 40 39 36 36 36 34 32 31 31 31 31 30 29 28 28 28 27 27 26 26 25 25 24 23 23 22 22 22 22 22 22 22 21 21 21 21 21 21 22 22 23
52 51 47 42 39 36 39 41 41 40 37 37 36 34 32 31 31 31 31 31 30 29 29 29 28 28 27 27 26 25 25 24 23 22 22 22 21 21 22 22 22 22 22 22 22 22 22 23 23
53 51 46 42 40 39 41 42 42 41 38 37 37 34 32 30 30 29 29 30 30 30 30 29 28 28 28 27 26 25 25 24 23 22 22 22 21 21 21 21 22 22 22 22 23 23 23 23 24
52 50 47 45 42 41 42 43 43 42 40 38 37 35 32 30 29 28 28 29 30 30 29 28 28 28 28 27 26 25 25 24 24 23 22 22 22 21 22 22 22 23 23 23 24 24 24 24 24
51 50 48 47 44 43 43 43 44 43 41 39 38 36 33 31 30 29 29 30 30 30 30 29 29 28 28 27 27 26 25 25 25 24 23 22 22 22 22 23 23 23 24 24 24 25 25 26 26
49 49 48 47 45 44 44 44 44 43 42 41 39 37 35 33 32 31 31 31 31 30 31 31 30 30 30 29 28 28 27 27 26 25 24 24 24 23 23 24 24 24 25 26 26 26 27 27 28
48 48 48 46 45 44 45 45 45 43 43 42 39 38 36 35 33 33 32 32 32 32 33 33 33 33 32 30 30 29 29 29 28 26 25 25 25 25 25 25 26 26 26 27 27 27 28 29 29
49 48 47 45 44 44 45 45 44 43 44 43 40 39 38 37 35 34 33 33 33 33 34 35 35 35 34 32 31 31 31 31 29 28 27 26 26 27 27 27 27 28 28 28 29 29 29 30 31
50 49 47 45 44 44 45 44 44 45 45 43 42 40 39 38 37 36 34 34 34 35 36 37 37 37 35 34 33 33 33 32 31 30 29 28 28 28 29 29 30 30 30 30 31 30 31 32 32
50 49 46 44 44 44 45 43 43 44 45 44 43 42 40 39 38 37 36 36 36 37 38 38 38 38 37 36 35 35 34 33 32 31 31 31 31 31 31 32 32 32 32 33 33 33 33 33 34
48 48 46 45 44 44 45 44 42 44 45 44 44 43 42 40 39 39 39 38 38 38 39 39 39 38 38 38 37 36 36 35 34 34 34 34 34 34 34 34 35 35 35 35 35 35 35 35 35
46 47 46 46 45 44 45 45 42 43 44 44 44 44 43 42 41 41 41 41 40 40 40 39 39 39 39 39 38 38 37 37 38 38 38 38 37 36 36 37 38 38 38 38 38 37 37 37 37
44 45 45 45 45 45 44 44 41 42 43 44 44 44 43 42 42 42 42 42 41 41 41 41 41 40 41 41 40 40 40 40 41 41 41 40 39 39 40 40 41 41 41 41 40 40 40 40 39
39 41 41 42 43 43 43 42 40 40 42 43 42 42 42 42 41 42 42 42 42 42 42 42 42 43 43 43 43 43 43 43 43 43 42 42 43 43 43 44 44 44 44 43 43 42 42 42 41
35 36 36 38 39 40 41 40 37 38 39 40 40 40 40 40 40 40 41 41 42 42 43 44 44 45 46 46 47 47 46 46 45 45 46 46 47 47 47 47 47 47 47 46 46 45 45 44 43
32 32 32 33 35 37 38 37 33 35 36 36 37 37 38 38 38 39 40 41 42 43 43 44 45 47 48 49 50 50 50 50 49 49 49 50 50 50 50 49 49 49 49 48 48 47 47 47 46
30 30 30 30 32 34 33 34 31 31 32 32 33 34 35 36 36 37 38 39 41 42 44 45 46 48 49 51 52 53 54 54 54 54 54 53 53 53 52 52 52 52 51 51 50 50 49 48 47
28 28 28 28 30 29 28 29 28 27 28 29 30 31 32 33 34 35 36 38 40 42 44 46 48 50 52 54 55 57 58 58 59 58 58 58 57 56 55 54 54 54 54 53 53 52 51 50 50
27 27 26 26 26 25 23 24 24 23 25 26 28 29 30 31 33 34 36 38 40 43 45 48 50 52 55 57 58 60 61 62 62 62 62 61 60 59 58 57 56 56 55 55 54 54 53 52 52
26 26 25 24 24 22 21 22 21 20 22 24 26 27 29 30 32 34 36 39 41 44 46 49 51 54 56 58 60 62 63 64 65 65 65 64 63 61 61 60 59 57 57 56 55 55 54 54 53
24 24 24 23 22 20 19 19 19 20 21 22 24 26 28 30 32 34 37 39 41 44 46 49 52 55 57 60 62 64 65 67 67 67 67 66 64 63 62 61 59 58 57 57 57 56 55 54 53
23 23 23 22 21 19 18 17 18 20 21 22 24 26 27 29 31 34 36 38 41 44 46 49 52 55 57 59 62 64 65 67 68 68 67 66 64 63 61 59 58 57 56 56 56 55 55 53 52
22 22 22 21 19 17 17 17 18 19 20 21 23 25 26 28 30 33 35 37 40 42 45 48 50 53 55 57 59 61 62 63 64 65 65 64 62 61 59 57 55 54 54 53 53 53 53 52 51

GEFSSGP_500_meanwind_066.txt.gz
Wind_Speed
48 47 46 45 44 43 39 36 34 33 32 31 29 27 25 23 22 21 19 18 17 17 17 16 16 16 16 16 16 16 16 16 16 16 16 16 17 17 17 18 18 18 19 19 19 19 19 19 18
49 48 48 48 47 44 40 37 36 36 34 32 31 29 28 26 24 22 21 19 19 18 17 17 17 17 17 16 16 16 16 16 16 16 16 16 17 17 17 17 17 18 18 18 18 19 19 19 19
49 49 49 50 49 44 39 37 38 38 35 34 32 31 30 27 25 23 22 20 20 19 18 17 17 17 16 16 16 16 16 16 15 15 15 16 16 17 17 17 17 17 17 17 17 18 18 19 19
48 50 51 52 49 42 38 39 40 39 37 35 34 32 30 28 26 24 23 21 21 20 19 18 18 17 17 16 16 16 16 16 16 16 16 16 17 17 17 18 18 18 17 17 17 18 18 19 19
49 50 53 53 47 41 40 41 41 40 38 36 35 33 31 29 27 25 23 22 22 21 20 20 19 19 18 17 17 17 17 17 18 18 18 18 19 19 19 19 19 19 19 19 19 19 19 19 19
50 51 53 52 45 41 41 42 41 40 38 37 36 34 32 30 28 26 25 24 23 22 22 22 21 21 20 19 19 19 19 19 20 20 20 20 20 21 21 21 21 20 20 20 20 20 19 19 19
52 51 50 48 43 42 42 43 42 40 39 38 36 35 33 31 29 27 26 25 24 24 24 24 24 23 23 22 21 21 21 21 21 21 21 21 22 22 21 21 21 20 20 20 20 20 20 20 20
52 52 50 47 43 42 42 43 43 42 41 40 38 36 34 32 30 29 28 27 26 26 26 26 26 26 25 24 24 23 23 22 22 22 22 22 22 21 21 21 20 20 20 19 19 19 19 19 19
53 53 51 46 42 42 43 44 44 43 42 41 38 36 34 33 31 30 29 29 28 29 29 29 29 28 28 27 26 26 25 24 23 23 23 22 21 21 20 20 20 20 19 19 19 19 19 19 19
55 53 50 47 44 43 44 45 45 44 43 41 39 37 35 34 32 31 31 31 31 31 31 31 31 30 30 29 28 27 26 25 25 24 23 22 22 21 21 20 20 19 19 19 19 19 19 19 19
56 53 51 48 45 45 45 47 46 45 44 42 40 38 36 34 33 32 32 32 32 32 32 32 32 31 31 31 30 29 28 27 26 25 24 23 23 22 21 21 20 20 19 19 19 19 19 19 20
55 55 53 50 48 47 47 47 47 46 45 43 41 39 37 35 34 33 33 33 33 32 32 32 33 32 32 32 32 30 29 28 28 27 26 25 24 24 23 22 21 20 20 20 20 20 20 20 20
55 55 54 52 51 49 49 48 47 47 46 44 42 40 38 36 35 34 33 33 32 32 32 33 33 33 33 33 32 32 31 31 30 29 28 27 26 25 24 23 23 22 21 21 21 21 21 21 22
54 55 55 53 52 51 50 49 48 47 46 45 43 41 39 37 36 34 33 33 33 32 33 34 34 34 34 34 34 33 33 33 32 31 30 29 29 28 26 25 24 24 24 23 23 23 23 23 24
52 55 55 54 52 51 50 50 49 47 47 46 44 42 40 39 37 35 34 34 33 33 34 34 35 35 35 35 35 35 35 35 34 33 33 32 31 30 29 28 27 27 26 25 25 25 25 25 26
52 53 54 53 52 51 51 50 49 49 48 46 45 44 42 40 38 37 36 35 35 35 35 36 36 36 36 37 37 37 37 37 36 36 35 34 33 32 31 30 30 30 29 28 28 28 28 28 28
52 51 51 50 50 50 50 49 49 49 48 47 46 45 43 41 39 38 37 36 36 36 36 37 37 37 38 39 39 40 39 39 38 37 37 36 36 35 35 34 33 33 32 32 31 32 32 31 31
48 48 48 48 48 48 49 49 48 48 48 48 47 46 44 42 40 39 38 37 36 36 36 37 38 38 39 40 41 41 41 41 41 40 39 39 39 39 38 37 37 36 36 35 35 36 35 34 34
46 47 47 46 46 46 47 48 47 47 47 47 47 46 45 43 42 40 39 38 37 37 37 38 39 39 40 41 42 43 43 43 43 43 42 42 41 41 40 40 40 39 39 39 39 39 38 38 38
44 45 46 45 45 45 45 46 46 45 46 46 45 45 44 44 42 41 40 39 38 38 38 39 39 40 41 42 44 44 45 45 45 45 44 44 43 43 43 43 43 43 43 43 43 42 42 42 42
43 43 43 43 43 43 44 44 44 43 44 45 44 44 43 43 42 42 41 40 39 39 39 39 40 41 42 43 44 45 46 45 45 45 45 45 46 46 46 46 46 46 46 46 46 46 45 45 45
40 41 41 41 41 42 42 42 42 42 42 43 43 43 42 42 42 41 41 40 40 40 40 40 40 41 42 43 44 45 45 46 46 47 47 48 49 49 49 48 49 49 49 49 49 49 49 49 48
38 38 38 38 39 40 41 41 41 40 40 41 41 41 41 41 41 41 40 40 40 40 40 39 40 41 42 43 44 45 45 46 46 48 49 50 50 51 51 51 52 52 52 52 53 52 52 52 52
35 35 36 36 37 39 38 39 39 39 39 39 39 39 39 40 39 39 39 39 39 39 39 39 39 40 41 42 43 44 45 46 47 48 49 51 52 53 54 54 55 55 56 55 56 56 55 55 54
32 32 31 33 35 37 36 37 38 37 37 37 37 37 37 37 37 37 37 37 37 38 38 38 39 39 40 41 42 43 45 46 48 50 51 53 54 55 57 58 58 59 59 59 58 58 57 57 56
29 30 30 30 32 33 33 34 35 34 35 35 35 35 35 35 35 35 35 35 35 36 36 36 37 38 39 41 42 44 46 48 50 52 53 55 57 58 60 61 61 61 62 62 61 60 59 58 58
28 29 29 28 28 28 30 31 31 31 31 32 32 32 32 32 32 33 33 33 33 34 34 35 36 38 39 41 43 45 47 49 51 54 56 58 60 61 62 63 64 64 64 63 63 62 61 60 59
28 28 28 28 26 25 26 27 27 27 28 29 29 30 30 30 31 31 31 31 32 32 33 34 36 37 39 42 43 45 48 50 53 55 58 60 62 63 65 66 66 65 65 64 63 62 61 60 60
26 27 27 26 25 24 24 24 25 25 26 27 27 28 28 29 29 29 29 29 30 31 32 34 35 37 39 41 43 45 47 50 53 56 58 60 63 64 65 66 66 65 64 62 61 60 59 58 58
24 25 25 25 23 22 23 23 23 24 25 25 26 26 27 27 27 27 28 29 29 30 32 33 35 36 37 38 40 42 44 47 50 53 55 57 59 61 62 62 62 62 60 58 57 55 55 55 54

GEFSSGP_500_meanwind_072.txt.gz
Wind_Speed
52 50 49 47 45 44 40 37 37 37 34 32 28 26 25 26 28 26 21 17 16 16 15 15 14 13 12 12 12 12 13 13 14 14 15 15 15 16 16 16 16 17 17 17 17 18 18 18 18
54 53 52 51 49 46 42 39 39 38 36 31 29 28 26 28 27 23 20 18 18 18 16 15 15 14 13 13 13 13 13 14 14 14 15 15 15 15 16 16 16 17 17 17 17 18 17 17 17
55 54 54 54 53 49 42 39 40 40 37 33 32 30 31 33 27 23 22 21 20 19 18 17 16 15 14 14 14 14 14 14 14 14 14 15 15 15 16 16 17 17 17 17 18 17 18 18 18
54 56 57 57 55 50 44 43 43 42 38 35 34 33 35 31 26 24 25 23 22 21 19 18 17 16 15 15 15 14 14 14 15 15 15 15 16 16 17 17 17 18 18 18 18 18 18 19 18
53 55 57 58 56 51 47 45 46 43 40 37 36 36 36 32 30 28 27 25 24 22 21 20 19 18 16 16 15 15 15 15 16 16 16 17 17 17 18 19 19 19 19 19 19 19 19 19 19
53 53 56 58 56 52 49 47 46 45 42 40 38 38 37 34 32 30 29 28 26 23 23 22 21 20 18 17 17 16 16 17 17 17 18 18 18 19 19 20 20 20 19 19 18 18 18 18 18
54 53 54 54 54 52 50 48 47 46 43 41 40 40 40 36 34 32 31 30 27 25 25 24 23 22 21 20 19 18 18 18 19 19 19 19 20 20 20 20 20 20 19 19 18 18 18 18 18
53 53 53 53 53 52 49 48 48 47 43 42 42 42 43 38 36 34 32 31 29 27 27 26 24 24 23 22 21 20 20 20 20 21 21 20 21 21 21 21 20 20 19 19 18 18 18 17 17
54 55 54 50 49 49 47 48 48 47 44 44 44 45 44 39 36 35 34 32 30 30 29 28 26 25 25 24 23 22 22 22 22 22 22 21 21 21 21 21 21 20 20 19 19 18 18 17 17
54 55 51 47 45 46 47 48 48 47 45 45 45 45 42 38 37 36 35 33 32 31 30 29 28 27 26 25 25 24 24 23 23 23 23 22 22 22 22 21 21 21 20 20 19 19 18 17 17
52 51 48 48 49 50 50 48 47 47 45 45 44 44 42 39 38 37 36 35 34 33 32 30 30 29 28 27 27 26 26 25 25 25 24 23 23 23 23 22 22 22 21 21 20 20 19 18 18
51 50 50 50 51 51 50 47 45 45 44 46 47 46 44 41 40 38 37 36 35 34 33 32 31 30 30 29 28 28 28 27 27 26 25 25 24 24 24 23 23 23 23 22 22 21 21 20 20
50 51 52 53 53 51 49 47 45 44 46 49 47 45 43 41 41 40 39 38 36 35 34 33 32 31 31 30 30 30 29 29 28 27 27 26 26 25 25 25 25 25 24 24 24 23 22 22 22
49 51 54 55 53 51 49 48 47 46 47 48 46 45 43 42 42 41 40 39 37 36 35 34 33 32 32 31 31 31 31 30 30 29 28 27 27 27 27 27 26 27 27 26 26 26 25 25 25
49 51 53 55 53 51 49 49 48 47 47 47 45 45 44 43 42 41 40 39 38 37 35 34 34 33 33 32 32 32 31 31 30 30 29 29 29 29 29 29 29 29 29 29 29 29 28 28 28
49 51 52 53 53 52 51 49 47 48 49 47 46 45 45 44 43 41 40 39 38 37 36 35 34 34 33 33 33 32 32 32 31 31 31 31 31 31 31 32 32 32 32 32 32 32 32 31 31
49 50 49 50 51 51 51 49 48 48 49 48 47 45 45 44 43 42 41 39 38 37 36 36 35 34 34 34 34 33 33 33 33 33 33 33 34 34 34 34 35 35 35 35 35 35 35 35 35
45 45 46 47 48 48 49 48 49 48 48 48 48 46 45 44 43 42 41 40 38 38 37 36 36 35 35 35 35 34 34 34 35 35 35 36 36 37 37 37 38 38 38 38 38 39 39 39 39
41 43 45 45 46 46 46 47 48 49 48 48 47 47 47 45 43 42 41 40 38 38 37 37 37 36 36 36 36 35 35 36 37 37 38 38 39 39 39 40 40 41 41 41 41 41 42 42 43
40 41 43 44 45 43 44 45 47 48 48 47 47 47 47 46 44 43 41 40 39 38 38 38 38 38 37 37 37 37 37 37 38 39 39 40 41 42 42 42 42 43 43 44 44 44 45 45 46
38 39 40 42 42 41 41 44 46 46 47 47 47 47 47 46 44 43 42 41 40 39 38 38 38 39 38 38 38 39 39 39 39 40 41 42 43 44 44 44 45 45 46 46 46 47 48 48 49
35 37 38 40 40 39 39 40 43 44 45 46 47 47 46 46 45 43 42 41 41 40 39 39 38 39 39 39 39 40 40 40 41 42 42 43 44 44 45 46 46 47 48 48 49 50 51 52 52
34 35 36 37 38 39 39 39 41 42 42 43 45 46 46 45 45 43 42 41 40 40 39 39 39 39 39 40 40 40 41 41 41 42 43 43 44 45 46 46 47 48 49 50 52 53 54 54 55
31 32 34 35 36 37 36 36 39 40 39 40 41 43 44 44 43 43 42 41 40 39 39 39 39 39 39 40 40 40 41 41 42 42 43 43 44 45 46 47 48 49 51 52 54 55 56 57 58
30 30 32 34 36 35 33 35 37 38 38 38 38 40 41 42 42 42 41 40 39 39 38 38 38 39 39 39 40 40 41 41 41 42 43 43 44 45 46 48 49 50 51 53 55 57 59 60 60
29 29 30 32 33 33 33 34 35 35 35 36 37 38 38 39 40 40 40 39 39 38 38 38 38 38 38 39 39 39 40 40 41 41 42 43 43 44 46 47 49 50 52 54 57 58 60 61 62
29 30 28 28 29 30 32 34 34 34 33 34 35 36 37 38 38 38 38 38 38 38 37 37 37 37 37 37 38 38 38 39 40 41 41 42 43 44 45 47 48 50 52 54 57 59 60 61 62
27 27 27 27 27 28 29 30 31 31 32 33 34 35 36 36 37 37 37 37 37 37 37 36 36 37 37 37 37 37 38 38 39 40 40 41 42 43 44 45 47 50 52 54 55 56 58 60 61
25 26 27 27 27 26 26 28 29 29 30 32 33 34 35 35 36 36 37 36 36 36 36 36 36 36 36 36 36 36 37 37 38 38 38 39 39 40 42 44 46 48 50 51 52 53 54 56 58
23 23 25 27 26 26 26 26 24 25 28 29 31 32 33 34 35 35 36 36 35 35 35 35 35 35 35 35 35 35 35 35 35 35 36 36 38 39 41 42 44 46 46 47 49 49 49 50 50

GEFSSGP_500_meanwind_078.txt.gz
Wind_Speed
55 54 52 51 49 48 44 41 40 40 40 38 36 35 33 31 29 25 21 20 18 17 16 14 13 12 10 10 9 9 8 8 9 9 10 10 10 11 10 10 11 11 12 12 13 13 14 14 14
56 56 55 54 53 50 45 43 42 42 40 38 37 36 35 32 28 24 23 20 18 18 16 15 13 12 11 10 10 9 9 9 9 10 10 10 10 10 10 11 11 12 12 13 13 14 14 14 15
58 57 57 57 55 51 46 44 44 44 41 39 37 37 36 33 29 25 24 21 19 18 17 15 14 12 11 11 10 10 10 10 10 10 10 11 11 11 11 11 12 12 13 13 14 14 15 15 15
60 60 59 59 56 51 47 47 47 46 43 40 38 38 37 33 29 27 25 23 21 19 18 16 15 13 12 12 11 11 11 11 11 11 11 11 11 12 12 12 13 13 13 14 14 14 15 15 15
60 61 61 60 57 52 49 49 49 48 45 42 41 40 37 34 31 28 26 24 23 21 19 18 16 15 14 13 13 13 13 12 12 12 12 12 12 13 13 13 13 14 14 14 14 15 15 15 15
59 61 62 61 56 52 51 50 51 50 47 45 43 42 39 36 33 30 27 26 24 23 21 19 18 17 16 15 14 14 14 14 14 14 14 14 14 14 14 14 14 15 15 15 15 15 15 15 15
59 60 60 60 57 54 52 52 52 51 49 47 45 43 41 38 34 31 29 28 26 24 23 21 20 19 18 17 16 16 16 16 15 15 15 15 16 16 16 15 15 15 15 15 15 15 16 16 16
58 59 59 60 58 55 52 52 52 52 51 49 48 45 42 40 36 33 31 30 28 26 25 24 23 22 21 20 19 18 18 17 17 17 17 17 17 17 17 16 16 16 16 16 17 17 17 17 17
56 58 59 58 57 54 54 54 53 53 51 51 50 47 44 42 39 35 32 31 30 28 27 26 25 24 23 22 21 20 19 19 18 18 18 18 18 18 18 18 18 18 17 18 18 18 18 18 18
54 56 55 53 54 53 55 56 54 54 53 53 52 49 46 44 41 37 34 33 32 31 29 28 27 26 25 24 23 22 21 20 19 19 18 19 19 19 19 19 19 19 19 19 19 19 20 20 20
51 51 50 51 53 54 55 56 56 55 54 55 53 51 48 46 43 39 37 35 34 33 32 31 30 28 27 26 25 24 23 22 21 20 19 20 20 20 20 20 20 20 20 20 20 21 21 21 22
49 48 48 49 51 53 54 54 55 56 54 54 53 52 50 48 44 41 39 37 36 35 34 33 32 30 29 28 27 26 24 23 22 22 21 21 21 22 22 22 22 22 22 22 22 22 23 24 24
48 47 48 49 50 51 52 53 53 54 54 54 53 53 52 50 47 44 42 39 38 37 36 34 33 32 31 30 28 27 26 25 24 24 23 23 23 23 23 23 23 23 24 24 24 24 24 25 26
47 48 49 50 51 51 51 51 51 51 52 52 52 52 51 49 48 46 43 41 39 38 37 36 35 34 32 31 30 29 28 27 26 26 25 25 25 25 24 24 25 25 25 25 26 26 26 27 28
48 48 49 50 50 50 49 50 49 48 49 49 50 51 51 49 48 46 44 42 41 40 39 38 37 35 34 33 32 31 30 29 28 28 28 27 27 27 26 26 26 27 27 27 28 29 29 30 30
48 49 49 47 47 48 48 48 46 47 48 47 48 49 50 49 47 46 45 44 42 41 40 39 38 37 35 34 33 33 32 31 30 30 29 29 29 28 28 28 28 29 29 29 30 31 32 32 33
47 48 47 45 46 46 47 45 44 45 47 46 46 47 48 48 47 46 46 45 43 42 41 40 39 38 37 36 35 34 33 32 32 31 31 31 31 30 30 30 30 31 31 31 32 33 34 35 36
43 44 44 44 44 45 46 44 44 45 45 45 45 45 46 47 46 46 46 45 44 43 42 41 40 39 38 37 36 35 35 34 33 33 33 33 32 32 32 32 32 33 33 34 34 35 36 37 38
40 41 41 41 41 43 44 44 44 45 46 45 45 45 46 46 46 46 46 46 45 43 42 41 40 39 39 38 37 36 35 35 35 34 34 34 34 34 34 34 34 35 35 36 37 37 38 39 40
39 39 40 40 40 41 43 44 44 46 46 45 45 45 45 45 45 45 45 45 44 44 42 41 40 39 39 38 37 37 37 36 36 36 35 35 36 36 36 36 36 37 38 38 39 40 41 41 42
37 37 38 38 39 40 42 45 45 45 46 47 46 45 45 45 44 44 45 45 45 44 44 43 42 41 40 40 39 39 38 38 37 37 37 38 38 38 38 38 38 39 39 40 41 42 42 43 44
35 34 35 36 38 38 40 42 43 44 45 45 45 45 45 45 44 44 44 45 45 44 43 43 42 41 41 41 40 40 39 39 39 39 39 39 39 39 39 40 40 41 41 42 42 43 43 44 45
32 31 32 34 35 36 38 39 39 41 43 42 43 44 45 45 45 44 45 45 45 45 44 43 43 42 42 41 41 40 40 40 40 40 40 40 40 40 41 41 42 42 43 43 43 44 45 45 46
31 29 29 31 33 35 35 37 37 38 38 38 41 42 43 45 46 45 45 45 45 45 45 45 44 43 43 43 42 42 41 41 41 41 41 41 41 42 42 43 43 43 43 44 44 45 45 46 47
31 29 30 30 32 32 32 34 34 35 36 37 39 41 42 44 45 46 45 45 45 45 45 45 45 44 44 44 44 43 43 42 42 41 41 42 42 43 43 43 43 43 43 44 44 45 46 47 48
30 29 29 29 29 28 29 31 30 32 34 36 38 39 41 42 43 45 45 46 46 45 45 45 45 44 44 44 44 43 43 43 42 42 43 43 43 43 43 43 43 43 43 44 44 45 46 46 47
30 29 27 28 28 28 28 27 27 29 32 34 35 37 39 41 42 43 44 45 46 46 45 44 44 44 43 43 43 43 43 43 43 43 43 43 42 42 42 43 43 43 43 43 44 44 44 45 46
29 28 28 27 26 27 26 25 25 27 30 32 34 35 37 39 41 42 42 43 44 45 45 44 44 44 43 43 43 42 42 42 42 42 42 42 42 42 42 42 42 42 42 43 42 42 43 44 45
27 27 27 26 25 25 25 24 23 25 27 30 33 34 36 37 39 40 41 41 41 42 43 43 42 42 42 42 41 41 41 41 41 41 41 41 41 41 41 41 41 41 41 41 41 41 42 42 43
25 25 25 26 25 24 24 23 22 23 25 28 30 32 34 35 37 38 39 40 40 40 41 41 41 41 41 40 40 40 40 40 40 40 40 40 40 40 40 40 40 39 39 39 40 40 40 40 41

GEFSSGP_500_meanwind_084.txt.gz
Wind_Speed
54 53 52 51 51 51 49 45 42 40 40 40 40 38 36 33 30 27 24 22 20 18 16 15 13 12 10 10 8 7 6 5 5 4 4 5 6 7 7 7 7 7 8 8 9 9 10 11 11
55 55 54 54 54 52 49 46 43 42 42 42 41 39 37 35 31 28 26 23 21 19 17 16 14 13 11 10 9 8 6 6 5 5 5 5 6 7 7 8 8 8 9 9 9 10 11 11 12
55 56 56 56 56 53 49 46 44 44 44 43 42 41 39 36 34 30 27 25 22 20 18 17 15 13 12 11 9 8 7 6 5 5 5 6 7 7 8 8 9 9 10 10 10 11 12 12 13
55 57 58 58 57 53 49 47 46 46 46 45 44 42 40 38 35 32 29 26 23 21 19 17 15 14 12 11 10 9 7 7 6 6 6 7 8 8 9 10 10 10 11 11 11 12 12 13 14
56 56 58 59 57 53 50 48 48 48 47 46 45 43 41 39 37 34 31 28 25 23 21 19 17 15 13 12 10 9 8 8 7 7 7 8 9 9 10 11 11 12 12 12 12 13 13 14 15
55 57 59 59 56 53 51 50 50 50 49 48 46 44 42 40 38 36 33 30 27 25 22 21 18 16 14 13 11 10 9 9 8 8 9 9 10 11 12 12 12 12 13 13 13 14 14 15 16
55 57 57 57 56 54 52 51 51 51 50 49 48 45 43 41 39 37 34 31 29 26 23 21 20 17 16 14 12 12 11 11 10 10 10 11 12 12 13 13 13 14 14 14 14 15 16 16 17
54 55 57 57 56 54 52 52 52 52 52 51 49 46 44 42 40 38 35 33 30 27 25 23 21 19 17 16 14 13 13 12 12 12 12 13 13 14 14 14 15 15 15 16 16 16 17 18 18
53 55 55 55 55 53 53 53 53 53 53 53 51 48 45 44 42 39 37 34 32 29 27 24 22 21 19 18 16 15 14 14 14 14 14 15 15 15 15 16 16 16 17 17 18 18 19 19 20
54 54 52 51 52 53 54 56 56 55 55 54 53 50 47 45 43 40 38 36 34 31 29 26 25 23 22 20 19 17 16 16 16 16 16 16 16 17 17 17 18 18 18 19 19 20 20 21 22
53 51 48 49 51 53 55 57 59 58 56 55 54 51 48 46 44 41 39 37 36 34 32 29 27 25 24 22 21 20 19 18 17 17 17 18 18 18 18 18 19 19 20 20 21 21 22 22 23
51 49 48 49 50 53 54 57 59 60 58 56 55 53 50 48 45 42 40 39 38 36 34 31 29 28 26 25 24 22 21 20 20 19 19 19 19 19 20 20 20 21 21 22 22 23 24 24 24
50 49 49 49 49 52 54 56 58 59 58 58 57 54 51 49 47 44 43 41 40 38 36 34 32 30 29 28 26 25 24 23 22 22 22 21 21 21 21 21 22 22 22 23 24 24 25 25 26
49 49 49 49 49 51 53 55 57 56 58 58 57 55 52 50 49 47 45 43 41 39 38 36 34 33 32 30 29 28 27 26 25 24 24 23 23 23 23 23 23 24 24 24 25 26 26 27 28
49 50 50 49 49 49 51 54 55 54 56 57 57 56 54 51 49 48 47 45 43 42 40 38 37 36 34 33 32 31 30 29 28 27 26 26 26 25 25 25 25 26 26 26 27 28 28 29 30
49 50 50 49 49 49 51 51 51 53 55 56 56 56 56 54 51 49 48 47 45 44 42 40 39 38 37 36 35 34 32 31 30 30 29 28 28 28 27 27 27 28 28 28 29 30 30 31 32
49 50 49 48 48 48 49 48 49 52 54 55 55 56 55 55 52 50 48 47 47 45 44 43 41 40 39 39 37 36 35 34 33 32 31 31 31 30 30 29 30 30 30 30 31 32 32 33 34
46 47 47 46 47 47 47 46 47 50 52 53 54 54 55 55 54 51 50 49 47 47 46 45 44 42 42 41 39 38 37 36 35 35 34 33 33 32 32 31 32 32 32 33 33 34 34 35 36
43 44 45 44 44 45 45 45 46 48 50 52 52 53 53 53 53 53 51 50 49 48 47 47 46 44 43 42 41 40 40 39 38 37 36 36 35 34 34 33 34 34 34 35 35 36 36 37 38
41 42 43 43 43 44 44 45 46 47 48 50 50 50 51 52 52 52 52 51 50 50 49 48 47 46 46 45 44 43 42 41 40 39 38 37 37 37 36 36 36 36 36 37 37 38 38 39 40
39 40 41 42 42 43 43 43 44 46 46 47 48 48 48 49 50 50 50 50 50 50 50 50 49 48 47 47 46 45 44 43 42 41 39 39 39 39 38 38 38 38 38 39 39 40 40 40 41
36 37 38 40 41 42 42 42 42 44 45 44 44 46 46 46 47 48 49 49 49 49 50 49 49 49 49 48 47 46 45 44 42 42 41 41 40 40 40 40 40 41 41 41 41 42 42 42 42
35 35 35 37 39 40 41 41 40 42 43 42 41 43 44 45 45 46 48 48 49 49 49 49 49 49 49 48 48 47 46 45 44 43 42 42 42 42 42 42 42 42 42 42 42 43 43 44 44
34 33 33 34 36 39 38 39 38 38 38 39 39 41 43 43 44 45 45 47 48 49 49 49 49 49 49 49 49 48 47 46 45 44 43 43 43 43 43 43 43 43 43 43 43 44 44 44 45
33 33 32 33 34 36 35 36 34 33 35 38 39 40 42 44 44 45 45 45 46 48 49 49 49 49 49 49 49 49 48 47 46 45 45 45 44 44 43 44 44 44 44 44 44 44 45 45 45
31 32 32 31 32 32 33 34 30 31 33 35 38 40 41 43 44 45 45 46 47 47 49 49 49 49 49 48 48 47 47 47 46 46 45 45 45 45 45 45 45 45 45 44 44 45 45 45 44
31 32 30 29 29 30 32 31 29 28 30 32 35 37 39 41 43 44 45 46 47 48 48 49 49 49 49 49 48 48 47 47 47 46 46 46 46 46 46 46 46 46 45 45 44 45 44 44 43
30 29 29 28 28 28 29 28 27 26 27 29 32 35 37 38 40 42 44 46 47 47 48 48 48 49 49 49 49 49 49 48 48 48 48 48 47 47 46 46 45 44 44 44 44 44 43 42 42
29 28 27 27 28 28 27 26 25 25 26 28 30 33 35 36 38 40 42 44 46 47 47 48 48 49 49 49 49 49 49 49 49 48 48 48 47 47 46 45 44 44 44 43 43 42 42 41 41
28 28 26 26 27 27 27 24 23 24 25 26 28 30 32 34 36 38 39 41 43 45 46 47 47 48 48 48 48 48 49 49 49 48 48 47 47 45 44 43 43 43 43 42 41 41 41 41 41

GEFSSGP_500_meanwind_090.txt.gz
Wind_Speed
54 53 52 51 51 52 51 48 45 42 41 40 38 36 34 31 29 27 24 22 20 19 17 16 15 14 12 11 10 10 9 8 7 6 5 4 3 3 3 3 3 3 4 5 5 6 6 7 8
54 54 54 54 53 53 52 49 46 44 43 41 40 38 35 33 31 28 26 24 22 20 18 16 15 14 13 12 11 10 9 8 7 7 6 4 3 3 3 3 3 4 4 5 6 6 7 7 8
55 55 55 56 55 54 52 50 47 45 44 43 41 40 38 35 33 30 28 26 24 22 20 18 16 15 14 12 11 10 9 9 8 7 6 4 3 3 3 3 4 4 5 5 6 6 7 8 9
55 56 56 57 55 54 52 50 49 47 45 44 43 42 40 37 34 32 30 27 25 23 21 19 18 16 14 13 12 11 10 9 8 7 6 5 4 4 4 4 4 5 5 6 6 7 7 8 9
55 56 57 57 55 54 52 51 50 49 47 45 44 43 41 38 36 33 32 29 27 25 22 21 19 17 16 14 13 12 11 10 9 8 7 6 5 4 4 4 5 5 6 6 7 7 8 9 10
55 56 56 56 55 54 53 53 51 50 49 47 46 44 42 40 37 35 33 31 29 26 24 22 20 19 17 16 14 13 12 11 10 9 8 7 6 6 5 5 6 6 6 7 7 8 9 10 11
56 55 54 54 54 54 54 53 53 51 50 49 47 46 44 42 39 37 35 33 31 28 26 23 22 20 19 17 16 15 14 13 11 10 9 8 7 7 7 7 7 7 7 8 8 9 10 11 12
56 53 53 54 54 54 53 53 53 52 51 50 49 48 46 44 41 39 37 35 32 30 27 25 23 22 20 19 17 16 15 14 13 11 10 9 8 8 8 8 8 8 8 9 9 11 12 13 14
56 55 54 53 52 52 53 53 53 53 52 52 50 49 47 45 43 41 39 37 34 31 29 26 25 24 22 21 19 18 16 15 14 13 12 11 10 10 10 10 10 10 10 11 11 12 13 14 15
57 55 52 50 50 52 53 54 54 54 53 52 52 50 48 47 45 43 41 39 36 33 31 29 27 25 24 22 21 20 18 17 16 15 13 12 12 12 11 11 11 11 12 12 13 14 14 15 16
55 54 52 52 51 52 53 54 55 56 55 53 52 51 50 48 47 45 43 41 39 36 34 32 29 28 26 24 23 22 20 19 18 17 15 15 14 14 13 13 13 13 14 14 15 15 16 17 18
54 53 54 53 52 52 53 54 56 57 57 55 53 53 51 50 48 47 45 43 41 39 36 34 32 30 28 27 25 24 22 21 20 19 18 17 16 16 16 16 16 16 16 16 17 17 18 19 20
53 53 54 55 54 53 53 54 55 56 57 57 55 54 53 52 50 49 47 45 43 41 39 36 34 32 31 29 28 26 25 24 23 21 20 19 18 18 18 18 18 18 18 18 19 19 20 21 22
52 52 53 54 55 54 54 54 55 55 57 58 57 56 54 53 51 50 48 46 44 42 41 39 37 35 33 32 30 29 28 26 25 24 23 22 21 21 21 20 20 20 20 21 21 22 22 23 24
51 52 53 54 54 55 54 54 55 53 55 58 58 57 56 54 53 50 49 47 46 44 43 41 39 37 36 35 34 32 31 29 28 27 26 25 24 24 23 23 23 23 23 23 24 24 25 25 26
50 52 53 53 53 53 54 53 52 54 55 56 58 58 57 56 54 52 50 48 47 45 44 43 41 40 39 38 37 36 34 33 31 30 29 28 27 27 26 26 26 26 26 26 26 27 27 28 28
50 50 51 52 52 51 52 51 52 53 55 55 56 57 57 56 55 53 52 50 48 46 45 43 43 42 41 40 40 39 38 36 35 33 32 32 31 30 30 29 29 29 29 29 29 29 30 30 31
46 48 49 50 50 50 51 51 51 51 53 55 56 57 57 57 55 54 52 51 50 48 47 45 44 44 44 43 42 42 41 39 38 37 36 35 34 34 33 33 33 32 32 32 32 32 32 33 33
42 45 46 48 48 49 50 50 50 50 51 53 55 56 57 57 56 55 53 51 50 49 48 48 47 46 46 45 45 44 44 42 41 40 39 39 37 37 36 36 35 35 34 34 34 34 35 35 35
39 41 44 45 46 47 49 49 49 50 49 50 53 54 56 56 56 55 54 53 51 50 49 49 48 47 47 47 47 47 46 45 44 43 43 42 40 40 39 38 38 38 37 37 37 37 37 37 37
37 37 40 42 44 46 47 48 48 49 49 49 50 53 54 54 55 55 54 53 53 52 51 50 49 48 48 49 48 48 48 47 47 46 45 44 43 43 42 41 41 40 40 39 39 39 39 39 39
34 35 35 38 41 44 46 47 47 47 49 48 47 50 52 53 54 55 55 54 52 52 53 52 51 50 50 51 51 50 49 49 49 48 47 47 46 45 45 44 43 43 42 42 41 41 41 41 41
32 33 34 35 38 41 43 44 45 45 46 46 46 46 49 51 52 54 55 55 54 53 52 52 52 52 51 51 52 51 51 51 51 50 49 49 48 47 47 47 46 45 44 43 42 42 43 42 42
29 31 32 33 36 39 41 42 42 42 42 43 45 44 45 48 50 52 54 55 54 53 53 53 53 53 52 52 52 52 52 52 52 52 52 51 50 49 49 48 47 46 46 45 44 44 44 44 43
28 28 29 32 35 38 39 40 40 39 39 40 42 43 43 45 47 49 50 52 52 52 52 52 53 53 52 52 52 52 53 53 53 52 53 52 52 51 50 49 49 48 47 46 46 46 45 45 45
26 27 28 29 32 34 35 38 38 36 37 38 39 41 42 43 44 45 46 48 49 50 51 52 51 52 52 52 52 52 53 53 54 53 53 52 52 51 51 50 49 49 48 48 48 47 47 46 46
25 26 26 27 28 30 32 35 34 33 34 36 37 38 40 41 41 43 44 46 48 49 50 51 51 51 51 51 52 52 53 53 53 53 53 53 52 51 51 50 50 50 50 49 49 48 47 46 45
26 26 27 27 27 28 30 31 32 31 32 33 35 35 36 38 39 41 42 44 46 47 49 50 50 51 51 51 52 52 52 53 53 53 52 52 52 52 51 51 50 50 49 48 48 48 47 47 46
27 27 27 27 27 28 28 28 30 30 30 31 32 33 34 35 37 38 39 41 43 44 45 47 48 49 50 51 51 52 52 53 53 53 53 52 51 51 51 51 50 49 49 49 49 48 47 46 46
25 26 26 27 26 26 27 26 26 27 29 29 30 32 32 33 34 35 36 38 40 42 43 44 45 47 48 49 50 51 51 52 52 52 52 51 51 51 51 51 50 50 49 49 48 47 46 45 44